Time,TemperatureF,DewpointF,PressureIn,WindDirection,WindDirectionDegrees,WindSpeedMPH,WindSpeedGustMPH,Humidity,HourlyPrecipIn,Conditions,Clouds,dailyrainin,SoftwareType,DateUTC
2013-10-10 00:00:00,56.7,32.6,29.29,SSE,149,0.0,0.0,40,0.00,,CLR,0.00,VWS V14.01,2013-10-10 05:00:00,
2013-10-10 00:01:00,56.7,32.6,29.29,SSE,149,0.0,0.0,40,0.00,,CLR,0.00,VWS V14.01,2013-10-10 05:01:00,
2013-10-10 00:03:00,56.7,32.6,29.29,SSE,149,0.0,0.0,40,0.00,,CLR,0.00,VWS V14.01,2013-10-10 05:03:00,
2013-10-10 00:04:00,56.7,32.6,29.29,SSE,149,0.0,0.0,40,0.00,,CLR,0.00,VWS V14.01,2013-10-10 05:04:00,
2013-10-10 00:06:00,56.7,35.0,29.29,SSE,149,0.0,0.0,44,0.00,,CLR,0.00,VWS V14.01,2013-10-10 05:06:00,
2013-10-10 00:08:00,56.7,35.0,29.29,SSE,149,0.0,0.0,44,0.00,,CLR,0.00,VWS V14.01,2013-10-10 05:08:00,
2013-10-10 00:09:00,56.7,35.0,29.29,SSE,149,0.0,0.0,44,0.00,,CLR,0.00,VWS V14.01,2013-10-10 05:09:00,
2013-10-10 00:11:00,56.7,35.0,29.29,SSE,149,0.0,0.0,44,0.00,,CLR,0.00,VWS V14.01,2013-10-10 05:11:00,
2013-10-10 00:13:00,56.7,35.0,29.29,SSE,149,0.0,0.0,44,0.00,,CLR,0.00,VWS V14.01,2013-10-10 05:13:00,
2013-10-10 00:14:00,56.7,35.0,29.29,SSE,149,0.0,0.0,44,0.00,,CLR,0.00,VWS V14.01,2013-10-10 05:14:00,
2013-10-10 00:16:00,56.7,35.0,29.29,SSE,149,0.0,0.0,44,0.00,,CLR,0.00,VWS V14.01,2013-10-10 05:16:00,
2013-10-10 00:17:00,56.7,35.0,29.29,SSE,149,0.0,0.0,44,0.00,,CLR,0.00,VWS V14.01,2013-10-10 05:17:00,
2013-10-10 00:19:00,56.7,35.0,29.29,SSE,149,0.0,2.2,44,0.00,,CLR,0.00,VWS V14.01,2013-10-10 05:19:00,
2013-10-10 00:20:00,56.7,35.0,29.29,SSE,149,0.0,0.0,44,0.00,,CLR,0.00,VWS V14.01,2013-10-10 05:20:00,
2013-10-10 00:21:00,56.7,35.0,29.29,SSE,149,0.0,0.0,44,0.00,,CLR,0.00,VWS V14.01,2013-10-10 05:21:00,
2013-10-10 00:22:00,56.7,35.0,29.29,SSE,149,0.0,0.0,44,0.00,,CLR,0.00,VWS V14.01,2013-10-10 05:22:00,
2013-10-10 00:23:00,56.5,34.8,29.29,SSE,149,0.0,0.0,44,0.00,,CLR,0.00,VWS V14.01,2013-10-10 05:23:00,
2013-10-10 00:24:00,56.5,34.8,29.29,SSE,149,0.0,0.0,44,0.00,,CLR,0.00,VWS V14.01,2013-10-10 05:24:00,
2013-10-10 00:26:00,56.5,34.8,29.29,SSE,149,0.0,0.0,44,0.00,,CLR,0.00,VWS V14.01,2013-10-10 05:26:00,
2013-10-10 00:28:00,56.3,34.7,29.29,SSE,149,0.0,0.0,44,0.00,,CLR,0.00,VWS V14.01,2013-10-10 05:28:00,
2013-10-10 00:29:00,56.3,34.7,29.29,SSE,149,0.0,0.0,44,0.00,,CLR,0.00,VWS V14.01,2013-10-10 05:29:00,
2013-10-10 00:30:00,56.3,34.7,29.29,SSE,149,0.0,0.0,44,0.00,,CLR,0.00,VWS V14.01,2013-10-10 05:30:00,
2013-10-10 00:31:00,56.3,34.7,29.29,SSE,149,0.0,0.0,44,0.00,,CLR,0.00,VWS V14.01,2013-10-10 05:31:00,
2013-10-10 00:34:00,56.3,34.7,29.29,SSE,149,0.0,0.0,44,0.00,,CLR,0.00,VWS V14.01,2013-10-10 05:34:00,
2013-10-10 00:35:00,56.3,34.7,29.29,SSE,149,0.0,0.0,44,0.00,,CLR,0.00,VWS V14.01,2013-10-10 05:35:00,
2013-10-10 00:36:00,56.1,34.5,29.29,SSE,149,0.0,0.0,44,0.00,,CLR,0.00,VWS V14.01,2013-10-10 05:36:00,
2013-10-10 00:37:00,56.1,34.5,29.29,SSE,149,0.0,0.0,44,0.00,,CLR,0.00,VWS V14.01,2013-10-10 05:37:00,
2013-10-10 00:40:00,56.3,34.7,29.29,SSE,149,0.0,0.0,44,0.00,,CLR,0.00,VWS V14.01,2013-10-10 05:40:00,
2013-10-10 00:41:00,56.3,34.7,29.29,SSE,149,0.0,0.0,44,0.00,,CLR,0.00,VWS V14.01,2013-10-10 05:41:00,
2013-10-10 00:42:00,56.3,34.7,29.29,SSE,149,0.0,0.0,44,0.00,,CLR,0.00,VWS V14.01,2013-10-10 05:42:00,
2013-10-10 00:43:00,56.3,34.7,29.29,SSE,149,0.0,0.0,44,0.00,,CLR,0.00,VWS V14.01,2013-10-10 05:43:00,
2013-10-10 00:46:00,56.3,34.7,29.29,SSE,149,0.0,0.0,44,0.00,,CLR,0.00,VWS V14.01,2013-10-10 05:46:00,
2013-10-10 00:47:00,56.3,34.7,29.29,SSE,149,0.0,0.0,44,0.00,,CLR,0.00,VWS V14.01,2013-10-10 05:47:00,
2013-10-10 00:48:00,56.1,34.5,29.29,SSE,149,0.0,0.0,44,0.00,,CLR,0.00,VWS V14.01,2013-10-10 05:48:00,
2013-10-10 00:50:00,55.9,34.4,29.29,SSE,149,0.0,0.0,44,0.00,,CLR,0.00,VWS V14.01,2013-10-10 05:50:00,
2013-10-10 00:52:00,55.9,34.4,29.29,SSE,149,0.0,0.0,44,0.00,,CLR,0.00,VWS V14.01,2013-10-10 05:52:00,
2013-10-10 00:53:00,55.9,37.6,29.29,SSE,149,0.0,0.0,50,0.00,,CLR,0.00,VWS V14.01,2013-10-10 05:53:00,
2013-10-10 00:55:00,55.9,37.6,29.29,SE,136,0.0,0.0,50,0.00,,CLR,0.00,VWS V14.01,2013-10-10 05:55:00,
2013-10-10 00:57:00,56.1,37.8,29.29,SE,136,0.0,0.0,50,0.00,,CLR,0.00,VWS V14.01,2013-10-10 05:57:00,
2013-10-10 00:58:00,56.1,37.8,29.29,SE,136,0.0,0.0,50,0.00,,CLR,0.00,VWS V14.01,2013-10-10 05:58:00,
2013-10-10 01:00:00,55.9,37.6,29.29,SE,136,0.0,0.0,50,0.00,,CLR,0.00,VWS V14.01,2013-10-10 06:00:00,
2013-10-10 01:01:00,55.9,37.6,29.29,SE,136,0.0,0.0,50,0.00,,CLR,0.00,VWS V14.01,2013-10-10 06:01:00,
2013-10-10 01:02:00,55.8,37.4,29.29,SE,136,0.0,0.0,50,0.00,,CLR,0.00,VWS V14.01,2013-10-10 06:02:00,
2013-10-10 01:03:00,55.8,37.4,29.29,SE,136,0.0,0.0,50,0.00,,CLR,0.00,VWS V14.01,2013-10-10 06:03:00,
2013-10-10 01:06:00,55.6,37.2,29.29,SE,138,2.2,2.2,50,0.00,,CLR,0.00,VWS V14.01,2013-10-10 06:06:00,
2013-10-10 01:07:00,55.6,37.2,29.29,SE,138,0.0,0.0,50,0.00,,CLR,0.00,VWS V14.01,2013-10-10 06:07:00,
2013-10-10 01:08:00,55.6,37.2,29.29,SE,138,0.0,0.0,50,0.00,,CLR,0.00,VWS V14.01,2013-10-10 06:08:00,
2013-10-10 01:11:00,55.2,36.9,29.29,SE,138,0.0,0.0,50,0.00,,CLR,0.00,VWS V14.01,2013-10-10 06:11:00,
2013-10-10 01:12:00,55.2,36.9,29.29,SE,138,0.0,0.0,50,0.00,,CLR,0.00,VWS V14.01,2013-10-10 06:12:00,
2013-10-10 01:13:00,55.2,36.9,29.29,SE,138,0.0,0.0,50,0.00,,CLR,0.00,VWS V14.01,2013-10-10 06:13:00,
2013-10-10 01:14:00,55.2,37.9,29.29,SE,143,2.2,3.6,52,0.00,,CLR,0.00,VWS V14.01,2013-10-10 06:14:00,
2013-10-10 01:17:00,55.2,37.9,29.29,SE,144,0.0,0.0,52,0.00,,CLR,0.00,VWS V14.01,2013-10-10 06:17:00,
2013-10-10 01:18:00,55.2,37.9,29.29,SE,143,0.0,0.0,52,0.00,,CLR,0.00,VWS V14.01,2013-10-10 06:18:00,
2013-10-10 01:19:00,55.2,37.9,29.29,SE,130,0.0,0.0,52,0.00,,CLR,0.00,VWS V14.01,2013-10-10 06:19:00,
2013-10-10 01:20:00,55.2,37.9,29.29,SE,130,0.0,0.0,52,0.00,,CLR,0.00,VWS V14.01,2013-10-10 06:20:00,
2013-10-10 01:22:00,55.2,37.9,29.29,SE,130,0.0,2.7,52,0.00,,CLR,0.00,VWS V14.01,2013-10-10 06:22:00,
2013-10-10 01:23:00,55.2,37.9,29.29,SE,130,0.0,0.0,52,0.00,,CLR,0.00,VWS V14.01,2013-10-10 06:23:00,
2013-10-10 01:24:00,55.2,37.9,29.29,SE,130,0.0,0.0,52,0.00,,CLR,0.00,VWS V14.01,2013-10-10 06:24:00,
2013-10-10 01:25:00,55.2,37.9,29.29,SE,130,0.0,0.0,52,0.00,,CLR,0.00,VWS V14.01,2013-10-10 06:25:00,
2013-10-10 01:26:00,55.2,37.9,29.29,SE,130,0.0,0.0,52,0.00,,CLR,0.00,VWS V14.01,2013-10-10 06:26:00,
2013-10-10 01:27:00,55.2,37.9,29.29,SE,130,0.0,0.0,52,0.00,,CLR,0.00,VWS V14.01,2013-10-10 06:27:00,
2013-10-10 01:28:00,55.2,37.9,29.29,SE,130,0.0,0.0,52,0.00,,CLR,0.00,VWS V14.01,2013-10-10 06:28:00,
2013-10-10 01:29:00,55.2,37.9,29.29,SE,130,0.0,0.0,52,0.00,,CLR,0.00,VWS V14.01,2013-10-10 06:29:00,
2013-10-10 01:31:00,55.0,37.8,29.29,SE,130,0.0,0.0,52,0.00,,CLR,0.00,VWS V14.01,2013-10-10 06:31:00,
2013-10-10 01:32:00,55.0,37.8,29.29,SE,130,0.0,0.0,52,0.00,,CLR,0.00,VWS V14.01,2013-10-10 06:32:00,
2013-10-10 01:34:00,54.9,37.6,29.29,SE,130,0.0,0.0,52,0.00,,CLR,0.00,VWS V14.01,2013-10-10 06:34:00,
2013-10-10 01:35:00,54.9,37.6,29.29,SE,130,0.0,0.0,52,0.00,,CLR,0.00,VWS V14.01,2013-10-10 06:35:00,
2013-10-10 01:36:00,54.9,37.6,29.29,SE,130,0.0,0.0,52,0.00,,CLR,0.00,VWS V14.01,2013-10-10 06:36:00,
2013-10-10 01:37:00,54.9,37.6,29.29,SE,130,0.0,0.0,52,0.00,,CLR,0.00,VWS V14.01,2013-10-10 06:37:00,
2013-10-10 01:39:00,54.9,37.6,29.29,SE,130,0.0,0.0,52,0.00,,CLR,0.00,VWS V14.01,2013-10-10 06:39:00,
2013-10-10 01:41:00,54.9,37.6,29.29,SE,130,0.0,2.2,52,0.00,,CLR,0.00,VWS V14.01,2013-10-10 06:41:00,
2013-10-10 01:43:00,55.0,37.8,29.29,SE,130,0.0,0.0,52,0.00,,CLR,0.00,VWS V14.01,2013-10-10 06:43:00,
2013-10-10 01:45:00,55.0,37.8,29.29,SE,130,0.0,0.0,52,0.00,,CLR,0.00,VWS V14.01,2013-10-10 06:45:00,
2013-10-10 01:46:00,55.2,37.9,29.29,SE,130,0.0,0.0,52,0.00,,CLR,0.00,VWS V14.01,2013-10-10 06:46:00,
2013-10-10 01:48:00,55.2,37.9,29.29,SE,144,0.0,2.2,52,0.00,,CLR,0.00,VWS V14.01,2013-10-10 06:48:00,
2013-10-10 01:50:00,55.0,37.8,29.29,SE,144,0.0,0.0,52,0.00,,CLR,0.00,VWS V14.01,2013-10-10 06:50:00,
2013-10-10 01:51:00,54.9,37.6,29.29,SE,144,0.0,0.0,52,0.00,,CLR,0.00,VWS V14.01,2013-10-10 06:51:00,
2013-10-10 01:52:00,54.9,37.6,29.29,SE,143,0.0,0.0,52,0.00,,CLR,0.00,VWS V14.01,2013-10-10 06:52:00,
2013-10-10 01:54:00,54.9,37.6,29.29,SE,144,0.0,0.0,52,0.00,,CLR,0.00,VWS V14.01,2013-10-10 06:54:00,
2013-10-10 01:55:00,54.9,37.6,29.29,SE,144,0.0,0.0,52,0.00,,CLR,0.00,VWS V14.01,2013-10-10 06:55:00,
2013-10-10 01:56:00,54.7,37.4,29.29,SE,144,0.0,0.0,52,0.00,,CLR,0.00,VWS V14.01,2013-10-10 06:56:00,
2013-10-10 01:57:00,54.7,37.4,29.29,SE,144,0.0,0.0,52,0.00,,CLR,0.00,VWS V14.01,2013-10-10 06:57:00,
2013-10-10 01:59:00,54.7,37.4,29.29,SE,143,2.2,2.7,52,0.00,,CLR,0.00,VWS V14.01,2013-10-10 06:59:00,
2013-10-10 02:01:00,54.7,38.4,29.29,SE,144,0.0,0.0,54,0.00,,CLR,0.00,VWS V14.01,2013-10-10 07:01:00,
2013-10-10 02:03:00,54.7,38.4,29.29,SE,144,0.0,0.0,54,0.00,,CLR,0.00,VWS V14.01,2013-10-10 07:03:00,
2013-10-10 02:04:00,54.7,38.4,29.29,SE,144,0.0,0.0,54,0.00,,CLR,0.00,VWS V14.01,2013-10-10 07:04:00,
2013-10-10 02:06:00,54.7,38.4,29.29,SE,144,2.2,2.2,54,0.00,,CLR,0.00,VWS V14.01,2013-10-10 07:06:00,
2013-10-10 02:07:00,54.7,38.4,29.29,SE,144,2.7,2.7,54,0.00,,CLR,0.00,VWS V14.01,2013-10-10 07:07:00,
2013-10-10 02:08:00,54.7,38.4,29.29,SE,144,0.0,0.0,54,0.00,,CLR,0.00,VWS V14.01,2013-10-10 07:08:00,
2013-10-10 02:10:00,54.7,38.4,29.29,SE,144,0.0,0.0,54,0.00,,CLR,0.00,VWS V14.01,2013-10-10 07:10:00,
2013-10-10 02:13:00,54.9,39.5,29.29,SE,146,0.0,2.7,56,0.00,,CLR,0.00,VWS V14.01,2013-10-10 07:13:00,
2013-10-10 02:14:00,54.9,39.5,29.29,SE,146,2.2,2.2,56,0.00,,CLR,0.00,VWS V14.01,2013-10-10 07:14:00,
2013-10-10 02:15:00,54.9,39.5,29.29,SE,146,3.1,3.1,56,0.00,,CLR,0.00,VWS V14.01,2013-10-10 07:15:00,
2013-10-10 02:16:00,55.0,39.7,29.29,SE,146,0.0,0.0,56,0.00,,CLR,0.00,VWS V14.01,2013-10-10 07:16:00,
2013-10-10 02:18:00,55.0,39.7,29.29,SE,146,0.0,2.7,56,0.00,,CLR,0.00,VWS V14.01,2013-10-10 07:18:00,
2013-10-10 02:19:00,55.0,39.7,29.29,SE,146,0.0,0.0,56,0.00,,CLR,0.00,VWS V14.01,2013-10-10 07:19:00,
2013-10-10 02:20:00,55.0,39.7,29.29,SE,146,0.0,0.0,56,0.00,,CLR,0.00,VWS V14.01,2013-10-10 07:20:00,
2013-10-10 02:21:00,55.0,39.7,29.29,SE,146,0.0,0.0,56,0.00,,CLR,0.00,VWS V14.01,2013-10-10 07:21:00,
2013-10-10 02:22:00,55.0,39.7,29.29,SE,146,0.0,0.0,56,0.00,,CLR,0.00,VWS V14.01,2013-10-10 07:22:00,
2013-10-10 02:24:00,55.2,39.8,29.29,SE,146,0.0,2.2,56,0.00,,CLR,0.00,VWS V14.01,2013-10-10 07:24:00,
2013-10-10 02:25:00,55.2,39.8,29.29,SE,146,2.2,2.7,56,0.00,,CLR,0.00,VWS V14.01,2013-10-10 07:25:00,
2013-10-10 02:26:00,55.2,39.8,29.29,SSE,149,0.0,0.0,56,0.00,,CLR,0.00,VWS V14.01,2013-10-10 07:26:00,
2013-10-10 02:27:00,55.4,39.0,29.29,SSE,150,3.1,3.1,54,0.00,,CLR,0.00,VWS V14.01,2013-10-10 07:27:00,
2013-10-10 02:30:00,55.4,39.0,29.29,SSE,150,0.0,0.0,54,0.00,,CLR,0.00,VWS V14.01,2013-10-10 07:30:00,
2013-10-10 02:31:00,55.4,39.0,29.29,SSE,150,0.0,0.0,54,0.00,,CLR,0.00,VWS V14.01,2013-10-10 07:31:00,
2013-10-10 02:32:00,55.4,39.0,29.29,SSE,150,0.0,0.0,54,0.00,,CLR,0.00,VWS V14.01,2013-10-10 07:32:00,
2013-10-10 02:33:00,55.4,39.0,29.29,SSE,150,0.0,0.0,54,0.00,,CLR,0.00,VWS V14.01,2013-10-10 07:33:00,
2013-10-10 02:36:00,55.4,39.0,29.29,SSE,150,0.0,2.2,54,0.00,,CLR,0.00,VWS V14.01,2013-10-10 07:36:00,
2013-10-10 02:37:00,55.4,39.0,29.29,SSE,150,0.0,2.2,54,0.00,,CLR,0.00,VWS V14.01,2013-10-10 07:37:00,
2013-10-10 02:38:00,55.4,39.0,29.29,SSE,150,0.0,0.0,54,0.00,,CLR,0.00,VWS V14.01,2013-10-10 07:38:00,
2013-10-10 02:39:00,55.4,39.0,29.32,SSE,150,0.0,0.0,54,0.00,,CLR,0.00,VWS V14.01,2013-10-10 07:39:00,
2013-10-10 02:40:00,55.4,39.0,29.32,SSE,150,0.0,0.0,54,0.00,,CLR,0.00,VWS V14.01,2013-10-10 07:40:00,
2013-10-10 02:42:00,55.4,39.0,29.32,SSE,150,0.0,0.0,54,0.00,,CLR,0.00,VWS V14.01,2013-10-10 07:42:00,
2013-10-10 02:43:00,55.0,38.7,29.32,SSE,150,0.0,0.0,54,0.00,,CLR,0.00,VWS V14.01,2013-10-10 07:43:00,
2013-10-10 02:44:00,55.0,38.7,29.32,SSE,150,0.0,0.0,54,0.00,,CLR,0.00,VWS V14.01,2013-10-10 07:44:00,
2013-10-10 02:46:00,54.7,38.4,29.32,SSE,150,0.0,0.0,54,0.00,,CLR,0.00,VWS V14.01,2013-10-10 07:46:00,
2013-10-10 02:47:00,54.3,38.0,29.32,SSE,150,0.0,0.0,54,0.00,,CLR,0.00,VWS V14.01,2013-10-10 07:47:00,
2013-10-10 02:48:00,54.3,38.0,29.32,SSE,150,0.0,0.0,54,0.00,,CLR,0.00,VWS V14.01,2013-10-10 07:48:00,
2013-10-10 02:49:00,54.1,37.9,29.32,SSE,150,0.0,0.0,54,0.00,,CLR,0.00,VWS V14.01,2013-10-10 07:49:00,
2013-10-10 02:52:00,53.8,37.5,29.32,SSE,150,0.0,0.0,54,0.00,,CLR,0.00,VWS V14.01,2013-10-10 07:52:00,
2013-10-10 02:53:00,53.8,37.5,29.32,SSE,150,0.0,0.0,54,0.00,,CLR,0.00,VWS V14.01,2013-10-10 07:53:00,
2013-10-10 02:54:00,54.0,38.6,29.29,SSE,150,0.0,0.0,56,0.00,,CLR,0.00,VWS V14.01,2013-10-10 07:54:00,
2013-10-10 02:55:00,54.0,38.6,29.29,SSE,150,2.2,2.2,56,0.00,,CLR,0.00,VWS V14.01,2013-10-10 07:55:00,
2013-10-10 02:57:00,54.5,40.0,29.29,SSE,150,2.2,2.2,58,0.00,,CLR,0.00,VWS V14.01,2013-10-10 07:57:00,
2013-10-10 02:58:00,54.5,40.0,29.29,SSE,150,2.7,2.7,58,0.00,,CLR,0.00,VWS V14.01,2013-10-10 07:58:00,
2013-10-10 02:59:00,54.5,40.9,29.29,SSE,150,2.7,2.7,60,0.00,,CLR,0.00,VWS V14.01,2013-10-10 07:59:00,
2013-10-10 03:00:00,54.9,41.2,29.29,SSE,150,2.7,2.7,60,0.00,,CLR,0.00,VWS V14.01,2013-10-10 08:00:00,
2013-10-10 03:01:00,54.9,41.2,29.29,SSE,150,0.0,3.6,60,0.00,,CLR,0.00,VWS V14.01,2013-10-10 08:01:00,
2013-10-10 03:02:00,55.2,41.6,29.29,SSE,150,2.7,2.7,60,0.00,,CLR,0.00,VWS V14.01,2013-10-10 08:02:00,
2013-10-10 03:03:00,55.2,41.6,29.29,SSE,150,0.0,2.2,60,0.00,,CLR,0.00,VWS V14.01,2013-10-10 08:03:00,
2013-10-10 03:05:00,55.4,41.8,29.29,SSE,150,2.2,2.7,60,0.00,,CLR,0.00,VWS V14.01,2013-10-10 08:05:00,
2013-10-10 03:08:00,55.6,41.0,29.29,SSE,151,0.0,0.0,58,0.00,,CLR,0.00,VWS V14.01,2013-10-10 08:08:00,
2013-10-10 03:09:00,55.6,41.0,29.29,SSE,151,2.7,3.1,58,0.00,,CLR,0.00,VWS V14.01,2013-10-10 08:09:00,
2013-10-10 03:10:00,55.6,41.0,29.29,SSE,151,2.7,2.7,58,0.00,,CLR,0.00,VWS V14.01,2013-10-10 08:10:00,
2013-10-10 03:12:00,55.6,41.0,29.29,SSE,151,0.0,2.7,58,0.00,,CLR,0.00,VWS V14.01,2013-10-10 08:12:00,
2013-10-10 03:14:00,55.6,41.0,29.29,SSE,151,0.0,3.1,58,0.00,,CLR,0.00,VWS V14.01,2013-10-10 08:14:00,
2013-10-10 03:15:00,55.6,41.0,29.29,SSE,153,0.0,0.0,58,0.00,,CLR,0.00,VWS V14.01,2013-10-10 08:15:00,
2013-10-10 03:16:00,55.6,41.0,29.29,SSE,153,4.0,4.0,58,0.00,,CLR,0.00,VWS V14.01,2013-10-10 08:16:00,
2013-10-10 03:18:00,55.6,41.0,29.29,SSE,158,3.6,4.0,58,0.00,,CLR,0.00,VWS V14.01,2013-10-10 08:18:00,
2013-10-10 03:19:00,55.4,40.9,29.29,SSE,161,3.6,4.0,58,0.00,,CLR,0.00,VWS V14.01,2013-10-10 08:19:00,
2013-10-10 03:20:00,55.4,40.0,29.29,SSE,160,3.6,4.0,56,0.00,,CLR,0.00,VWS V14.01,2013-10-10 08:20:00,
2013-10-10 03:21:00,55.4,40.0,29.29,SSE,154,4.5,4.5,56,0.00,,CLR,0.00,VWS V14.01,2013-10-10 08:21:00,
2013-10-10 03:23:00,55.4,40.9,29.29,SSE,152,4.0,4.0,58,0.00,,CLR,0.00,VWS V14.01,2013-10-10 08:23:00,
2013-10-10 03:24:00,55.4,40.9,29.29,SSE,158,2.7,4.0,58,0.00,,CLR,0.00,VWS V14.01,2013-10-10 08:24:00,
2013-10-10 03:26:00,55.4,40.9,29.29,SSE,163,2.7,4.0,58,0.00,,CLR,0.00,VWS V14.01,2013-10-10 08:26:00,
2013-10-10 03:27:00,55.4,40.9,29.29,SSE,161,3.6,4.0,58,0.00,,CLR,0.00,VWS V14.01,2013-10-10 08:27:00,
2013-10-10 03:29:00,55.4,40.9,29.29,SSE,164,4.0,5.4,58,0.00,,CLR,0.00,VWS V14.01,2013-10-10 08:29:00,
2013-10-10 03:30:00,55.4,40.9,29.29,SSE,167,3.1,4.0,58,0.00,,CLR,0.00,VWS V14.01,2013-10-10 08:30:00,
2013-10-10 03:32:00,55.4,40.9,29.29,SSE,164,4.0,4.0,58,0.00,,CLR,0.00,VWS V14.01,2013-10-10 08:32:00,
2013-10-10 03:33:00,55.2,41.6,29.29,SSE,156,3.6,4.0,60,0.00,,CLR,0.00,VWS V14.01,2013-10-10 08:33:00,
2013-10-10 03:34:00,55.4,40.9,29.29,SSE,163,4.0,5.8,58,0.00,,CLR,0.00,VWS V14.01,2013-10-10 08:34:00,
2013-10-10 03:36:00,55.4,40.9,29.29,SSE,163,4.0,4.0,58,0.00,,CLR,0.00,VWS V14.01,2013-10-10 08:36:00,
2013-10-10 03:38:00,55.4,40.9,29.29,SSE,158,4.9,4.9,58,0.00,,CLR,0.00,VWS V14.01,2013-10-10 08:38:00,
2013-10-10 03:39:00,55.4,40.9,29.29,SSE,162,3.6,4.0,58,0.00,,CLR,0.00,VWS V14.01,2013-10-10 08:39:00,
2013-10-10 03:40:00,55.4,41.8,29.29,South,186,3.6,4.0,60,0.00,,CLR,0.00,VWS V14.01,2013-10-10 08:40:00,
2013-10-10 03:41:00,55.4,41.8,29.29,SSE,157,2.7,3.6,60,0.00,,CLR,0.00,VWS V14.01,2013-10-10 08:41:00,
2013-10-10 03:42:00,55.4,40.9,29.29,SSE,152,4.0,4.0,58,0.00,,CLR,0.00,VWS V14.01,2013-10-10 08:42:00,
2013-10-10 03:43:00,55.4,40.9,29.29,SSE,155,3.1,4.0,58,0.00,,CLR,0.00,VWS V14.01,2013-10-10 08:43:00,
2013-10-10 03:44:00,55.2,41.6,29.29,SSE,155,2.7,2.7,60,0.00,,CLR,0.00,VWS V14.01,2013-10-10 08:44:00,
2013-10-10 03:47:00,55.2,41.6,29.29,SSE,160,4.0,4.0,60,0.00,,CLR,0.00,VWS V14.01,2013-10-10 08:47:00,
2013-10-10 03:48:00,55.2,41.6,29.29,SSE,160,0.0,2.7,60,0.00,,CLR,0.00,VWS V14.01,2013-10-10 08:48:00,
2013-10-10 03:49:00,55.0,41.4,29.29,SSE,160,2.7,3.1,60,0.00,,CLR,0.00,VWS V14.01,2013-10-10 08:49:00,
2013-10-10 04:22:00,54.7,44.3,29.29,SSE,158,2.7,2.7,68,0.00,,,0.00,VWS V14.01,2013-10-10 09:22:00,
2013-10-10 04:23:00,54.5,44.2,29.32,SSE,159,0.0,2.2,68,0.00,,,0.00,VWS V14.01,2013-10-10 09:23:00,
2013-10-10 04:27:00,54.5,44.9,29.32,SSE,155,2.7,2.7,70,0.00,,,0.00,VWS V14.01,2013-10-10 09:27:00,
2013-10-10 04:28:00,54.5,44.9,29.32,SSE,155,2.2,2.2,70,0.00,,,0.00,VWS V14.01,2013-10-10 09:28:00,
2013-10-10 04:29:00,54.5,44.9,29.32,SSE,155,3.6,3.6,70,0.00,,,0.00,VWS V14.01,2013-10-10 09:29:00,
2013-10-10 04:33:00,54.3,44.8,29.32,SSE,155,0.0,0.0,70,0.00,,,0.00,VWS V14.01,2013-10-10 09:33:00,
2013-10-10 04:34:00,54.3,44.8,29.32,SSE,155,0.0,0.0,70,0.00,,,0.00,VWS V14.01,2013-10-10 09:34:00,
2013-10-10 04:35:00,54.5,44.9,29.32,SSE,155,2.2,2.2,70,0.00,,,0.00,VWS V14.01,2013-10-10 09:35:00,
2013-10-10 04:37:00,54.5,45.7,29.32,SSE,155,2.2,2.2,72,0.00,,,0.00,VWS V14.01,2013-10-10 09:37:00,
2013-10-10 04:38:00,54.5,45.7,29.32,SSE,155,0.0,2.7,72,0.00,,,0.00,VWS V14.01,2013-10-10 09:38:00,
2013-10-10 04:39:00,54.5,45.7,29.32,SSE,155,0.0,2.2,72,0.00,,,0.00,VWS V14.01,2013-10-10 09:39:00,
2013-10-10 04:40:00,54.7,45.8,29.32,SSE,155,0.0,0.0,72,0.00,,,0.00,VWS V14.01,2013-10-10 09:40:00,
2013-10-10 04:42:00,54.7,45.8,29.32,SSE,155,0.0,0.0,72,0.00,,,0.00,VWS V14.01,2013-10-10 09:42:00,
2013-10-10 04:43:00,54.7,45.8,29.32,SSE,155,0.0,0.0,72,0.00,,,0.00,VWS V14.01,2013-10-10 09:43:00,
2013-10-10 04:44:00,54.7,45.8,29.32,SSE,155,0.0,0.0,72,0.00,,,0.00,VWS V14.01,2013-10-10 09:44:00,
2013-10-10 04:45:00,54.7,45.8,29.32,SSE,155,0.0,0.0,72,0.00,,,0.00,VWS V14.01,2013-10-10 09:45:00,
2013-10-10 04:47:00,54.7,45.8,29.32,SSE,155,0.0,0.0,72,0.00,,,0.00,VWS V14.01,2013-10-10 09:47:00,
2013-10-10 04:48:00,54.7,45.8,29.32,SSE,155,0.0,0.0,72,0.00,,,0.00,VWS V14.01,2013-10-10 09:48:00,
2013-10-10 04:49:00,54.7,45.8,29.32,SSE,155,0.0,0.0,72,0.00,,,0.00,VWS V14.01,2013-10-10 09:49:00,
2013-10-10 04:50:00,54.7,45.8,29.32,SSE,155,0.0,0.0,72,0.00,,,0.00,VWS V14.01,2013-10-10 09:50:00,
2013-10-10 04:52:00,54.7,45.8,29.32,SSE,155,0.0,0.0,72,0.00,,,0.00,VWS V14.01,2013-10-10 09:52:00,
2013-10-10 04:54:00,54.5,45.7,29.32,SSE,155,0.0,0.0,72,0.00,,,0.00,VWS V14.01,2013-10-10 09:54:00,
2013-10-10 04:57:00,54.5,45.7,29.32,SSE,155,0.0,0.0,72,0.00,,,0.00,VWS V14.01,2013-10-10 09:57:00,
2013-10-10 04:58:00,54.5,45.7,29.32,SSE,155,0.0,0.0,72,0.00,,,0.00,VWS V14.01,2013-10-10 09:58:00,
2013-10-10 04:59:00,54.5,45.7,29.32,SSE,155,2.2,2.2,72,0.00,,,0.00,VWS V14.01,2013-10-10 09:59:00,
2013-10-10 05:02:00,54.5,45.7,29.32,SSE,155,0.0,0.0,72,0.00,,,0.00,VWS V14.01,2013-10-10 10:02:00,
2013-10-10 05:03:00,54.5,45.7,29.32,SSE,155,0.0,0.0,72,0.00,,,0.00,VWS V14.01,2013-10-10 10:03:00,
2013-10-10 05:04:00,54.5,45.7,29.32,SSE,155,0.0,0.0,72,0.00,,,0.00,VWS V14.01,2013-10-10 10:04:00,
2013-10-10 05:05:00,54.5,45.7,29.32,SSE,155,2.7,2.7,72,0.00,,,0.00,VWS V14.01,2013-10-10 10:05:00,
2013-10-10 05:06:00,54.5,45.7,29.32,SSE,155,0.0,0.0,72,0.00,,,0.00,VWS V14.01,2013-10-10 10:06:00,
2013-10-10 05:07:00,54.5,45.7,29.32,SSE,155,0.0,0.0,72,0.00,,,0.00,VWS V14.01,2013-10-10 10:07:00,
2013-10-10 05:08:00,54.5,45.7,29.32,SSE,155,0.0,0.0,72,0.00,,,0.00,VWS V14.01,2013-10-10 10:08:00,
2013-10-10 05:09:00,54.5,45.7,29.32,SSE,155,0.0,0.0,72,0.00,,,0.00,VWS V14.01,2013-10-10 10:09:00,
2013-10-10 05:11:00,54.7,45.8,29.32,SSE,155,0.0,0.0,72,0.00,,,0.00,VWS V14.01,2013-10-10 10:11:00,
2013-10-10 05:13:00,54.7,45.8,29.32,SSE,155,0.0,0.0,72,0.00,,,0.00,VWS V14.01,2013-10-10 10:13:00,
2013-10-10 05:15:00,54.3,45.5,29.32,SSE,155,0.0,0.0,72,0.00,,,0.00,VWS V14.01,2013-10-10 10:15:00,
2013-10-10 05:16:00,54.1,45.3,29.32,SSE,155,0.0,0.0,72,0.00,,,0.00,VWS V14.01,2013-10-10 10:16:00,
2013-10-10 05:17:00,54.0,45.2,29.32,SSE,155,0.0,0.0,72,0.00,,,0.00,VWS V14.01,2013-10-10 10:17:00,
2013-10-10 05:18:00,54.0,45.2,29.32,SSE,155,0.0,0.0,72,0.00,,,0.00,VWS V14.01,2013-10-10 10:18:00,
2013-10-10 05:19:00,54.0,45.2,29.32,SSE,155,0.0,0.0,72,0.00,,,0.00,VWS V14.01,2013-10-10 10:19:00,
2013-10-10 05:20:00,53.6,44.8,29.32,SSE,155,0.0,0.0,72,0.00,,,0.00,VWS V14.01,2013-10-10 10:20:00,
2013-10-10 05:22:00,53.6,44.8,29.32,SSE,155,0.0,0.0,72,0.00,,,0.00,VWS V14.01,2013-10-10 10:22:00,
2013-10-10 05:23:00,53.4,44.6,29.32,SSE,155,0.0,0.0,72,0.00,,,0.00,VWS V14.01,2013-10-10 10:23:00,
2013-10-10 05:24:00,53.4,44.6,29.32,SSE,155,0.0,0.0,72,0.00,,,0.00,VWS V14.01,2013-10-10 10:24:00,
2013-10-10 05:25:00,53.2,44.5,29.32,SSE,155,0.0,0.0,72,0.00,,,0.00,VWS V14.01,2013-10-10 10:25:00,
2013-10-10 05:27:00,53.2,45.2,29.32,SSE,155,4.0,4.0,74,0.00,,,0.00,VWS V14.01,2013-10-10 10:27:00,
2013-10-10 05:28:00,53.2,45.2,29.32,SSE,161,3.1,3.6,74,0.00,,,0.00,VWS V14.01,2013-10-10 10:28:00,
2013-10-10 05:29:00,53.2,45.2,29.32,SSE,161,4.0,4.0,74,0.00,,,0.00,VWS V14.01,2013-10-10 10:29:00,
2013-10-10 05:30:00,53.2,45.2,29.32,SSE,161,4.0,4.0,74,0.00,,,0.00,VWS V14.01,2013-10-10 10:30:00,
2013-10-10 05:31:00,53.4,45.3,29.32,SSE,162,0.0,4.0,74,0.00,,,0.00,VWS V14.01,2013-10-10 10:31:00,
2013-10-10 05:32:00,53.4,45.3,29.32,SSE,161,2.2,3.1,74,0.00,,,0.00,VWS V14.01,2013-10-10 10:32:00,
2013-10-10 05:33:00,53.4,46.1,29.32,SSE,161,2.7,3.1,76,0.00,,,0.00,VWS V14.01,2013-10-10 10:33:00,
2013-10-10 05:34:00,53.4,46.1,29.32,SSE,162,2.2,2.7,76,0.00,,,0.00,VWS V14.01,2013-10-10 10:34:00,
2013-10-10 05:35:00,53.4,46.1,29.32,SSE,161,2.2,2.7,76,0.00,,,0.00,VWS V14.01,2013-10-10 10:35:00,
2013-10-10 05:36:00,53.6,46.2,29.32,SSE,161,2.2,3.1,76,0.00,,,0.00,VWS V14.01,2013-10-10 10:36:00,
2013-10-10 05:37:00,53.6,46.2,29.32,SSE,161,3.6,3.6,76,0.00,,,0.00,VWS V14.01,2013-10-10 10:37:00,
2013-10-10 05:38:00,53.8,46.4,29.32,SSE,161,2.7,2.7,76,0.00,,,0.00,VWS V14.01,2013-10-10 10:38:00,
2013-10-10 05:41:00,54.0,47.3,29.29,SSE,164,3.6,3.6,78,0.00,,,0.00,VWS V14.01,2013-10-10 10:41:00,
2013-10-10 05:42:00,53.8,47.1,29.29,SSE,164,4.0,4.0,78,0.00,,,0.00,VWS V14.01,2013-10-10 10:42:00,
2013-10-10 05:44:00,53.8,47.1,29.29,SSE,165,4.0,4.0,78,0.00,,,0.00,VWS V14.01,2013-10-10 10:44:00,
2013-10-10 05:46:00,53.8,47.1,29.29,SSE,166,4.0,4.9,78,0.00,,,0.00,VWS V14.01,2013-10-10 10:46:00,
2013-10-10 05:48:00,53.8,47.1,29.29,SSE,164,3.1,4.9,78,0.00,,,0.00,VWS V14.01,2013-10-10 10:48:00,
2013-10-10 05:50:00,53.8,47.1,29.29,SSE,166,0.0,2.7,78,0.00,,,0.00,VWS V14.01,2013-10-10 10:50:00,
2013-10-10 05:51:00,53.8,47.1,29.29,SSE,155,2.7,3.1,78,0.00,,,0.00,VWS V14.01,2013-10-10 10:51:00,
2013-10-10 05:52:00,53.8,47.1,29.29,SSE,155,2.7,3.1,78,0.00,,,0.00,VWS V14.01,2013-10-10 10:52:00,
2013-10-10 05:53:00,53.8,47.1,29.32,SSE,153,3.6,3.6,78,0.00,,,0.00,VWS V14.01,2013-10-10 10:53:00,
2013-10-10 05:55:00,53.8,47.1,29.32,SSE,157,3.1,3.6,78,0.00,,,0.00,VWS V14.01,2013-10-10 10:55:00,
2013-10-10 05:57:00,53.8,47.1,29.32,SSE,156,4.9,5.4,78,0.00,,,0.00,VWS V14.01,2013-10-10 10:57:00,
2013-10-10 05:59:00,54.0,47.9,29.32,SSE,156,0.0,0.0,80,0.00,,,0.00,VWS V14.01,2013-10-10 10:59:00,
2013-10-10 06:00:00,54.0,47.9,29.32,SSE,156,2.7,3.6,80,0.00,,,0.00,VWS V14.01,2013-10-10 11:00:00,
2013-10-10 06:02:00,54.0,47.9,29.32,SSE,158,2.2,3.1,80,0.00,,,0.00,VWS V14.01,2013-10-10 11:02:00,
2013-10-10 06:03:00,54.0,47.9,29.32,SSE,159,3.1,3.6,80,0.00,,,0.00,VWS V14.01,2013-10-10 11:03:00,
2013-10-10 06:05:00,54.1,48.1,29.32,SSE,160,2.7,3.1,80,0.00,,,0.00,VWS V14.01,2013-10-10 11:05:00,
2013-10-10 06:06:00,54.1,48.1,29.32,SSE,160,2.7,2.7,80,0.00,,,0.00,VWS V14.01,2013-10-10 11:06:00,
2013-10-10 06:07:00,54.1,48.1,29.32,SSE,152,4.0,4.0,80,0.00,,,0.00,VWS V14.01,2013-10-10 11:07:00,
2013-10-10 06:08:00,54.3,49.0,29.32,SSE,152,2.2,4.0,82,0.00,,,0.00,VWS V14.01,2013-10-10 11:08:00,
2013-10-10 06:10:00,54.3,49.0,29.32,SE,143,3.6,4.0,82,0.00,,,0.00,VWS V14.01,2013-10-10 11:10:00,
2013-10-10 06:11:00,54.5,49.1,29.32,SE,145,3.1,3.6,82,0.00,,,0.00,VWS V14.01,2013-10-10 11:11:00,
2013-10-10 06:12:00,54.5,49.1,29.32,SE,145,2.7,3.6,82,0.00,,,0.00,VWS V14.01,2013-10-10 11:12:00,
2013-10-10 06:13:00,54.5,49.1,29.32,SE,145,0.0,0.0,82,0.00,,,0.00,VWS V14.01,2013-10-10 11:13:00,
2013-10-10 06:14:00,54.5,49.1,29.32,SE,145,2.7,2.7,82,0.00,,,0.00,VWS V14.01,2013-10-10 11:14:00,
2013-10-10 06:16:00,54.5,49.1,29.32,SSE,151,0.0,4.0,82,0.00,,,0.00,VWS V14.01,2013-10-10 11:16:00,
2013-10-10 06:17:00,54.5,49.1,29.32,SSE,150,3.1,3.1,82,0.00,,,0.00,VWS V14.01,2013-10-10 11:17:00,
2013-10-10 06:18:00,54.5,49.1,29.32,SSE,150,2.7,2.7,82,0.00,,,0.00,VWS V14.01,2013-10-10 11:18:00,
2013-10-10 06:19:00,54.5,49.1,29.32,SSE,150,2.7,2.7,82,0.00,,,0.00,VWS V14.01,2013-10-10 11:19:00,
2013-10-10 06:20:00,54.5,49.1,29.32,SSE,150,2.7,3.6,82,0.00,,,0.00,VWS V14.01,2013-10-10 11:20:00,
2013-10-10 06:21:00,54.5,49.1,29.32,SSE,151,2.7,3.1,82,0.00,,,0.00,VWS V14.01,2013-10-10 11:21:00,
2013-10-10 06:22:00,54.5,49.1,29.32,SSE,152,2.7,2.7,82,0.00,,,0.00,VWS V14.01,2013-10-10 11:22:00,
2013-10-10 06:23:00,54.5,49.1,29.32,SSE,152,0.0,0.0,82,0.00,,,0.00,VWS V14.01,2013-10-10 11:23:00,
2013-10-10 06:25:00,54.3,49.0,29.32,SSE,155,3.1,3.1,82,0.00,,,0.00,VWS V14.01,2013-10-10 11:25:00,
2013-10-10 06:26:00,54.3,49.0,29.32,SSE,155,2.7,3.1,82,0.00,,,0.00,VWS V14.01,2013-10-10 11:26:00,
2013-10-10 06:27:00,54.3,49.0,29.32,SSE,155,2.7,2.7,82,0.00,,,0.00,VWS V14.01,2013-10-10 11:27:00,
2013-10-10 06:28:00,54.3,49.0,29.32,SSE,157,2.7,4.0,82,0.00,,,0.00,VWS V14.01,2013-10-10 11:28:00,
2013-10-10 06:29:00,54.1,48.8,29.32,SSE,166,5.4,5.4,82,0.00,,,0.00,VWS V14.01,2013-10-10 11:29:00,
2013-10-10 06:31:00,54.1,48.8,29.32,SSE,154,3.1,4.0,82,0.00,,,0.00,VWS V14.01,2013-10-10 11:31:00,
2013-10-10 06:32:00,54.3,49.0,29.32,SSE,158,5.4,5.4,82,0.00,,,0.00,VWS V14.01,2013-10-10 11:32:00,
2013-10-10 06:33:00,54.3,49.0,29.32,SSE,156,4.9,4.9,82,0.00,,,0.00,VWS V14.01,2013-10-10 11:33:00,
2013-10-10 06:35:00,54.1,48.8,29.32,SSE,159,3.1,3.6,82,0.00,,,0.00,VWS V14.01,2013-10-10 11:35:00,
2013-10-10 06:36:00,54.1,48.8,29.32,SSE,156,4.0,4.0,82,0.00,,,0.00,VWS V14.01,2013-10-10 11:36:00,
2013-10-10 06:37:00,54.1,48.8,29.32,SSE,159,3.1,4.0,82,0.00,,,0.00,VWS V14.01,2013-10-10 11:37:00,
2013-10-10 06:38:00,54.3,49.6,29.32,SSE,166,3.1,4.0,84,0.00,,,0.00,VWS V14.01,2013-10-10 11:38:00,
2013-10-10 06:39:00,54.3,49.6,29.32,SSE,166,2.7,4.0,84,0.00,,,0.00,VWS V14.01,2013-10-10 11:39:00,
2013-10-10 06:41:00,54.3,49.6,29.32,SSE,163,2.7,3.6,84,0.00,,,0.00,VWS V14.01,2013-10-10 11:41:00,
2013-10-10 06:42:00,54.3,49.6,29.32,SSE,157,4.0,4.0,84,0.00,,,0.00,VWS V14.01,2013-10-10 11:42:00,
2013-10-10 06:44:00,54.1,49.4,29.32,SSE,158,2.7,3.1,84,0.00,,,0.00,VWS V14.01,2013-10-10 11:44:00,
2013-10-10 06:47:00,54.3,49.6,29.32,SSE,155,3.1,3.1,84,0.00,,,0.00,VWS V14.01,2013-10-10 11:47:00,
2013-10-10 06:48:00,54.3,49.6,29.32,SSE,155,0.0,0.0,84,0.00,,,0.00,VWS V14.01,2013-10-10 11:48:00,
2013-10-10 06:49:00,54.1,49.4,29.32,SSE,155,2.7,2.7,84,0.00,,,0.00,VWS V14.01,2013-10-10 11:49:00,
2013-10-10 06:50:00,54.1,49.4,29.32,SSE,156,0.0,2.7,84,0.00,,,0.00,VWS V14.01,2013-10-10 11:50:00,
2013-10-10 06:52:00,54.3,49.6,29.32,SSE,157,0.0,2.7,84,0.00,,,0.00,VWS V14.01,2013-10-10 11:52:00,
2013-10-10 06:53:00,54.3,50.2,29.32,SSE,153,3.1,3.1,86,0.00,,,0.00,VWS V14.01,2013-10-10 11:53:00,
2013-10-10 06:56:00,54.3,50.2,29.32,SSE,168,0.0,4.0,86,0.00,,,0.00,VWS V14.01,2013-10-10 11:56:00,
2013-10-10 06:57:00,54.3,50.2,29.32,SSE,168,2.7,2.7,86,0.00,,,0.00,VWS V14.01,2013-10-10 11:57:00,
2013-10-10 06:59:00,54.3,50.2,29.32,SSE,164,2.7,2.7,86,0.00,,,0.00,VWS V14.01,2013-10-10 11:59:00,
2013-10-10 07:00:00,54.3,50.2,29.32,SSE,164,2.2,2.7,86,0.00,,,0.00,VWS V14.01,2013-10-10 12:00:00,
2013-10-10 07:02:00,54.3,50.8,29.32,SSE,160,0.0,0.0,88,0.00,,,0.00,VWS V14.01,2013-10-10 12:02:00,
2013-10-10 07:03:00,54.5,51.0,29.32,SSE,158,0.0,0.0,88,0.00,,,0.00,VWS V14.01,2013-10-10 12:03:00,
2013-10-10 07:04:00,54.5,51.0,29.32,SSE,157,0.0,0.0,88,0.00,,,0.00,VWS V14.01,2013-10-10 12:04:00,
2013-10-10 07:05:00,54.5,51.0,29.32,SSE,149,0.0,0.0,88,0.00,,,0.00,VWS V14.01,2013-10-10 12:05:00,
2013-10-10 07:08:00,54.5,51.0,29.32,SSE,161,0.0,0.0,88,0.00,,,0.00,VWS V14.01,2013-10-10 12:08:00,
2013-10-10 07:09:00,54.5,51.0,29.32,SSE,162,0.0,0.0,88,0.00,,,0.00,VWS V14.01,2013-10-10 12:09:00,
2013-10-10 07:10:00,54.5,51.0,29.32,SSE,162,0.0,0.0,88,0.00,,,0.00,VWS V14.01,2013-10-10 12:10:00,
2013-10-10 07:11:00,54.3,50.8,29.32,SSE,165,0.0,0.0,88,0.00,,,0.00,VWS V14.01,2013-10-10 12:11:00,
2013-10-10 07:13:00,54.3,50.8,29.32,South,169,0.0,0.0,88,0.00,,,0.00,VWS V14.01,2013-10-10 12:13:00,
2013-10-10 07:15:00,54.3,50.8,29.32,SSE,158,0.0,0.0,88,0.00,,,0.00,VWS V14.01,2013-10-10 12:15:00,
2013-10-10 07:17:00,54.3,50.8,29.32,SSE,163,0.0,0.0,88,0.00,,,0.00,VWS V14.01,2013-10-10 12:17:00,
2013-10-10 07:18:00,54.3,50.8,29.32,SSE,157,0.0,0.0,88,0.00,,,0.00,VWS V14.01,2013-10-10 12:18:00,
2013-10-10 07:20:00,54.3,51.5,29.32,SSE,164,0.0,0.0,90,0.00,,,0.00,VWS V14.01,2013-10-10 12:20:00,
2013-10-10 07:21:00,54.3,51.5,29.32,SSE,164,0.0,0.0,90,0.00,,,0.00,VWS V14.01,2013-10-10 12:21:00,
2013-10-10 07:22:00,54.5,51.6,29.32,SSE,165,0.0,0.0,90,0.00,,,0.00,VWS V14.01,2013-10-10 12:22:00,
2013-10-10 07:23:00,54.5,51.6,29.32,SSE,164,0.0,0.0,90,0.00,,,0.00,VWS V14.01,2013-10-10 12:23:00,
2013-10-10 07:24:00,54.5,51.6,29.32,SSE,165,0.0,0.0,90,0.00,,,0.00,VWS V14.01,2013-10-10 12:24:00,
2013-10-10 07:25:00,54.5,51.6,29.32,SSE,154,0.0,0.0,90,0.00,,,0.00,VWS V14.01,2013-10-10 12:25:00,
2013-10-10 07:26:00,54.5,51.6,29.32,SSE,157,0.0,0.0,90,0.00,,,0.00,VWS V14.01,2013-10-10 12:26:00,
2013-10-10 07:28:00,54.7,51.8,29.32,SSE,156,0.0,3.1,90,0.00,,,0.00,VWS V14.01,2013-10-10 12:28:00,
2013-10-10 07:29:00,54.7,52.4,29.32,SSE,157,3.1,3.1,92,0.00,,,0.00,VWS V14.01,2013-10-10 12:29:00,
2013-10-10 07:30:00,54.7,52.4,29.32,South,172,3.6,3.6,92,0.00,,,0.00,VWS V14.01,2013-10-10 12:30:00,
2013-10-10 07:31:00,54.7,52.4,29.32,South,174,2.7,4.0,92,0.00,,,0.00,VWS V14.01,2013-10-10 12:31:00,
2013-10-10 07:33:00,54.9,52.6,29.32,SSE,163,4.9,5.4,92,0.00,,,0.00,VWS V14.01,2013-10-10 12:33:00,
2013-10-10 07:35:00,55.0,52.8,29.32,SSE,162,3.6,5.4,92,0.00,,,0.00,VWS V14.01,2013-10-10 12:35:00,
2013-10-10 07:36:00,55.0,52.8,29.32,South,169,3.6,3.6,92,0.00,,,0.00,VWS V14.01,2013-10-10 12:36:00,
2013-10-10 07:39:00,55.4,53.1,29.32,SSE,158,6.3,6.3,92,0.00,,,0.00,VWS V14.01,2013-10-10 12:39:00,
2013-10-10 07:41:00,55.8,53.5,29.32,SSE,159,4.0,4.0,92,0.00,,,0.00,VWS V14.01,2013-10-10 12:41:00,
2013-10-10 07:42:00,55.8,53.5,29.32,SSE,164,3.6,4.0,92,0.00,,,0.00,VWS V14.01,2013-10-10 12:42:00,
2013-10-10 07:43:00,55.9,54.2,29.32,SSE,164,4.0,5.8,94,0.00,,,0.00,VWS V14.01,2013-10-10 12:43:00,
2013-10-10 07:46:00,56.1,54.4,29.32,SSE,156,5.8,5.8,94,0.00,,,0.00,VWS V14.01,2013-10-10 12:46:00,
2013-10-10 07:47:00,56.1,54.4,29.32,SSE,158,4.0,5.8,94,0.00,,,0.00,VWS V14.01,2013-10-10 12:47:00,
2013-10-10 07:48:00,56.3,54.6,29.32,SSE,168,4.0,4.0,94,0.00,,,0.00,VWS V14.01,2013-10-10 12:48:00,
2013-10-10 07:49:00,56.3,54.6,29.32,South,170,3.6,3.6,94,0.00,,,0.00,VWS V14.01,2013-10-10 12:49:00,
2013-10-10 07:52:00,56.5,54.8,29.32,South,176,2.7,5.4,94,0.00,,,0.00,VWS V14.01,2013-10-10 12:52:00,
2013-10-10 07:53:00,56.5,54.8,29.32,South,178,3.1,3.1,94,0.00,,,0.00,VWS V14.01,2013-10-10 12:53:00,
2013-10-10 07:55:00,56.7,55.0,29.35,SSE,151,2.7,3.1,94,0.00,,,0.00,VWS V14.01,2013-10-10 12:55:00,
2013-10-10 07:58:00,56.7,54.4,29.35,SSE,156,4.0,4.0,92,0.00,,,0.00,VWS V14.01,2013-10-10 12:58:00,
2013-10-10 07:59:00,56.8,54.5,29.35,SSE,158,3.1,3.1,92,0.00,,,0.00,VWS V14.01,2013-10-10 12:59:00,
2013-10-10 08:00:00,56.8,54.5,29.35,SSE,158,2.7,3.1,92,0.00,,,0.00,VWS V14.01,2013-10-10 13:00:00,
2013-10-10 08:01:00,56.8,55.1,29.35,SSE,158,2.2,2.7,94,0.00,,,0.00,VWS V14.01,2013-10-10 13:01:00,
2013-10-10 08:02:00,57.0,55.3,29.35,SSE,158,2.7,2.7,94,0.00,,,0.00,VWS V14.01,2013-10-10 13:02:00,
2013-10-10 08:03:00,57.0,54.7,29.35,SSE,158,2.7,2.7,92,0.00,,,0.00,VWS V14.01,2013-10-10 13:03:00,
2013-10-10 08:04:00,57.0,54.7,29.35,SSE,158,0.0,2.7,92,0.00,,,0.00,VWS V14.01,2013-10-10 13:04:00,
2013-10-10 08:06:00,57.2,54.9,29.35,SSE,158,0.0,2.7,92,0.00,,,0.00,VWS V14.01,2013-10-10 13:06:00,
2013-10-10 08:08:00,57.2,54.9,29.35,SSE,158,0.0,2.2,92,0.00,,,0.00,VWS V14.01,2013-10-10 13:08:00,
2013-10-10 08:09:00,57.4,55.1,29.35,SSE,158,0.0,0.0,92,0.00,,,0.00,VWS V14.01,2013-10-10 13:09:00,
2013-10-10 08:12:00,57.6,55.3,29.35,SSE,158,0.0,0.0,92,0.00,,,0.00,VWS V14.01,2013-10-10 13:12:00,
2013-10-10 08:14:00,57.7,55.4,29.35,SSE,158,3.6,3.6,92,0.00,,,0.00,VWS V14.01,2013-10-10 13:14:00,
2013-10-10 08:15:00,57.7,55.4,29.35,SSE,158,0.0,3.6,92,0.00,,,0.00,VWS V14.01,2013-10-10 13:15:00,
2013-10-10 08:17:00,57.9,55.6,29.35,SSE,162,2.7,3.6,92,0.00,,,0.00,VWS V14.01,2013-10-10 13:17:00,
2013-10-10 08:19:00,57.9,55.6,29.35,SSE,166,3.6,3.6,92,0.00,,,0.00,VWS V14.01,2013-10-10 13:19:00,
2013-10-10 08:20:00,57.9,55.6,29.35,South,171,3.1,4.0,92,0.00,,,0.00,VWS V14.01,2013-10-10 13:20:00,
2013-10-10 08:22:00,58.1,55.8,29.35,SSE,160,5.4,5.4,92,0.00,,,0.00,VWS V14.01,2013-10-10 13:22:00,
2013-10-10 08:25:00,58.5,55.5,29.35,SSE,147,3.1,6.3,90,0.00,,,0.00,VWS V14.01,2013-10-10 13:25:00,
2013-10-10 08:26:00,58.5,55.5,29.35,South,169,3.6,3.6,90,0.00,,,0.00,VWS V14.01,2013-10-10 13:26:00,
2013-10-10 08:28:00,58.6,55.7,29.35,South,171,0.0,2.2,90,0.00,,,0.00,VWS V14.01,2013-10-10 13:28:00,
2013-10-10 08:30:00,58.8,55.9,29.35,South,170,3.6,3.6,90,0.00,,,0.00,VWS V14.01,2013-10-10 13:30:00,
2013-10-10 08:32:00,59.0,55.5,29.35,SSE,164,2.2,3.6,88,0.00,,,0.00,VWS V14.01,2013-10-10 13:32:00,
2013-10-10 08:33:00,59.2,55.6,29.35,SSE,162,3.6,4.9,88,0.00,,,0.00,VWS V14.01,2013-10-10 13:33:00,
2013-10-10 08:35:00,59.2,55.6,29.35,South,171,3.6,3.6,88,0.00,,,0.00,VWS V14.01,2013-10-10 13:35:00,
2013-10-10 08:37:00,59.4,55.8,29.35,South,189,3.1,5.4,88,0.00,,,0.00,VWS V14.01,2013-10-10 13:37:00,
2013-10-10 08:39:00,59.5,56.0,29.35,SSE,160,0.0,4.9,88,0.00,,,0.00,VWS V14.01,2013-10-10 13:39:00,
2013-10-10 08:40:00,59.7,55.5,29.35,SSE,154,3.1,3.1,86,0.00,,,0.00,VWS V14.01,2013-10-10 13:40:00,
2013-10-10 08:41:00,59.7,55.5,29.35,South,178,3.6,3.6,86,0.00,,,0.00,VWS V14.01,2013-10-10 13:41:00,
2013-10-10 08:42:00,59.9,55.7,29.35,SSE,167,0.0,4.0,86,0.00,,,0.00,VWS V14.01,2013-10-10 13:42:00,
2013-10-10 08:43:00,59.9,55.7,29.35,SSE,165,4.0,5.4,86,0.00,,,0.00,VWS V14.01,2013-10-10 13:43:00,
2013-10-10 08:44:00,59.9,55.7,29.35,SSE,156,4.0,4.0,86,0.00,,,0.00,VWS V14.01,2013-10-10 13:44:00,
2013-10-10 08:45:00,60.1,55.2,29.35,SSE,155,2.7,2.7,84,0.00,,,0.00,VWS V14.01,2013-10-10 13:45:00,
2013-10-10 08:46:00,60.3,55.4,29.35,SSE,160,0.0,0.0,84,0.00,,,0.00,VWS V14.01,2013-10-10 13:46:00,
2013-10-10 08:48:00,60.4,55.6,29.35,South,190,4.9,4.9,84,0.00,,,0.00,VWS V14.01,2013-10-10 13:48:00,
2013-10-10 08:49:00,60.4,54.9,29.35,SSE,168,3.1,4.9,82,0.00,,,0.00,VWS V14.01,2013-10-10 13:49:00,
2013-10-10 08:50:00,60.4,54.9,29.35,SSE,163,2.7,3.6,82,0.00,,,0.00,VWS V14.01,2013-10-10 13:50:00,
2013-10-10 08:52:00,60.6,54.4,29.35,South,171,2.7,3.6,80,0.00,,,0.00,VWS V14.01,2013-10-10 13:52:00,
2013-10-10 08:53:00,60.6,54.4,29.35,South,172,2.7,3.6,80,0.00,,,0.00,VWS V14.01,2013-10-10 13:53:00,
2013-10-10 08:54:00,60.6,54.4,29.35,South,187,0.0,0.0,80,0.00,,,0.00,VWS V14.01,2013-10-10 13:54:00,
2013-10-10 08:55:00,60.8,53.9,29.35,SSW,199,2.7,3.1,78,0.00,,,0.00,VWS V14.01,2013-10-10 13:55:00,
2013-10-10 08:57:00,61.0,54.1,29.35,SSW,197,3.1,3.1,78,0.00,,,0.00,VWS V14.01,2013-10-10 13:57:00,
2013-10-10 08:59:00,61.0,54.1,29.35,SSE,157,3.1,4.0,78,0.00,,,0.00,VWS V14.01,2013-10-10 13:59:00,
2013-10-10 09:00:00,61.2,54.3,29.35,South,181,4.0,4.0,78,0.00,,,0.00,VWS V14.01,2013-10-10 14:00:00,
2013-10-10 09:01:00,61.2,54.3,29.35,South,177,5.8,5.8,78,0.00,,,0.00,VWS V14.01,2013-10-10 14:01:00,
2013-10-10 09:03:00,61.3,53.7,29.35,South,181,2.7,5.4,76,0.00,,,0.00,VWS V14.01,2013-10-10 14:03:00,
2013-10-10 09:04:00,61.5,53.9,29.35,SSE,162,2.7,3.6,76,0.00,,,0.00,VWS V14.01,2013-10-10 14:04:00,
2013-10-10 09:06:00,61.7,54.1,29.35,South,172,4.0,4.9,76,0.00,,,0.00,VWS V14.01,2013-10-10 14:06:00,
2013-10-10 09:07:00,61.7,53.3,29.35,South,177,4.9,6.3,74,0.00,,,0.00,VWS V14.01,2013-10-10 14:07:00,
2013-10-10 09:08:00,61.7,53.3,29.35,South,173,5.8,6.3,74,0.00,,,0.00,VWS V14.01,2013-10-10 14:08:00,
2013-10-10 09:10:00,61.9,52.8,29.35,SSE,157,4.9,5.4,72,0.00,,,0.00,VWS V14.01,2013-10-10 14:10:00,
2013-10-10 09:11:00,62.1,52.2,29.35,SSE,165,3.6,5.4,70,0.00,,,0.00,VWS V14.01,2013-10-10 14:11:00,
2013-10-10 09:13:00,62.4,52.5,29.35,SSE,155,3.6,5.4,70,0.00,,,0.00,VWS V14.01,2013-10-10 14:13:00,
2013-10-10 09:14:00,62.4,52.5,29.35,South,170,2.7,4.5,70,0.00,,,0.00,VWS V14.01,2013-10-10 14:14:00,
2013-10-10 09:15:00,62.8,52.9,29.35,SSE,165,5.4,5.4,70,0.00,,,0.00,VWS V14.01,2013-10-10 14:15:00,
2013-10-10 09:17:00,63.0,52.2,29.35,SE,139,3.6,4.9,68,0.00,,,0.00,VWS V14.01,2013-10-10 14:17:00,
2013-10-10 09:18:00,63.1,52.4,29.35,South,187,5.4,5.4,68,0.00,,,0.00,VWS V14.01,2013-10-10 14:18:00,
2013-10-10 09:19:00,63.1,52.4,29.35,SSE,151,5.4,6.3,68,0.00,,,0.00,VWS V14.01,2013-10-10 14:19:00,
2013-10-10 09:20:00,63.5,52.0,29.35,South,178,2.2,5.4,66,0.00,,,0.00,VWS V14.01,2013-10-10 14:20:00,
2013-10-10 09:23:00,63.9,52.3,29.35,South,176,3.6,4.9,66,0.00,,,0.00,VWS V14.01,2013-10-10 14:23:00,
2013-10-10 09:24:00,64.0,51.6,29.35,SE,143,3.6,5.4,64,0.00,,,0.00,VWS V14.01,2013-10-10 14:24:00,
2013-10-10 09:26:00,64.2,47.2,29.35,South,171,3.1,4.0,54,0.00,,,0.00,VWS V14.01,2013-10-10 14:26:00,
2013-10-10 09:29:00,64.6,46.6,29.35,South,176,4.0,4.9,52,0.00,,,0.00,VWS V14.01,2013-10-10 14:29:00,
2013-10-10 09:30:00,64.8,45.7,29.35,SSE,154,0.0,2.2,50,0.00,,,0.00,VWS V14.01,2013-10-10 14:30:00,
2013-10-10 09:31:00,64.9,45.9,29.35,SSE,154,2.7,2.7,50,0.00,,,0.00,VWS V14.01,2013-10-10 14:31:00,
2013-10-10 09:34:00,65.5,45.3,29.35,SSE,159,3.1,5.4,48,0.00,,,0.00,VWS V14.01,2013-10-10 14:34:00,
2013-10-10 09:35:00,65.7,45.5,29.35,South,177,5.4,5.4,48,0.00,,,0.00,VWS V14.01,2013-10-10 14:35:00,
2013-10-10 09:36:00,65.7,45.5,29.35,SSW,199,4.9,5.4,48,0.00,,,0.00,VWS V14.01,2013-10-10 14:36:00,
2013-10-10 09:37:00,66.0,44.7,29.35,ESE,122,2.7,4.0,46,0.00,,,0.00,VWS V14.01,2013-10-10 14:37:00,
2013-10-10 09:38:00,66.0,44.7,29.35,ESE,120,3.1,4.0,46,0.00,,,0.00,VWS V14.01,2013-10-10 14:38:00,
2013-10-10 09:39:00,66.2,43.7,29.35,SSW,195,4.0,4.9,44,0.00,,,0.00,VWS V14.01,2013-10-10 14:39:00,
2013-10-10 09:40:00,66.2,43.7,29.35,SE,141,4.0,4.0,44,0.00,,,0.00,VWS V14.01,2013-10-10 14:40:00,
2013-10-10 09:42:00,66.4,43.8,29.35,South,177,4.0,4.0,44,0.00,,,0.00,VWS V14.01,2013-10-10 14:42:00,
2013-10-10 09:43:00,66.6,41.5,29.35,SE,131,5.4,5.4,40,0.00,,,0.00,VWS V14.01,2013-10-10 14:43:00,
2013-10-10 09:44:00,66.6,41.5,29.35,South,187,4.9,5.4,40,0.00,,,0.00,VWS V14.01,2013-10-10 14:44:00,
2013-10-10 09:46:00,66.9,41.8,29.35,SSE,165,0.0,3.1,40,0.00,,,0.00,VWS V14.01,2013-10-10 14:46:00,
2013-10-10 09:47:00,67.1,42.0,29.35,SSE,152,3.6,3.6,40,0.00,,,0.00,VWS V14.01,2013-10-10 14:47:00,
2013-10-10 09:48:00,67.3,38.0,29.35,SSE,153,4.0,5.4,34,0.00,,,0.00,VWS V14.01,2013-10-10 14:48:00,
2013-10-10 09:49:00,67.5,38.1,29.35,SSE,153,0.0,5.4,34,0.00,,,0.00,VWS V14.01,2013-10-10 14:49:00,
2013-10-10 09:52:00,68.0,38.6,29.35,SSW,193,3.6,4.0,34,0.00,,,0.00,VWS V14.01,2013-10-10 14:52:00,
2013-10-10 09:53:00,68.2,38.8,29.35,South,176,2.7,3.6,34,0.00,,,0.00,VWS V14.01,2013-10-10 14:53:00,
2013-10-10 09:54:00,68.2,38.8,29.35,ESE,122,0.0,4.9,34,0.00,,,0.00,VWS V14.01,2013-10-10 14:54:00,
2013-10-10 09:55:00,68.4,38.9,29.35,ESE,115,3.6,4.9,34,0.00,,,0.00,VWS V14.01,2013-10-10 14:55:00,
2013-10-10 09:58:00,68.5,39.1,29.35,SSE,168,5.4,5.4,34,0.00,,,0.00,VWS V14.01,2013-10-10 14:58:00,
2013-10-10 10:00:00,68.9,39.4,29.35,SSE,153,2.7,3.6,34,0.00,,,0.00,VWS V14.01,2013-10-10 15:00:00,
2013-10-10 10:01:00,69.1,39.6,29.35,SE,128,0.0,5.4,34,0.00,,,0.00,VWS V14.01,2013-10-10 15:01:00,
2013-10-10 10:03:00,69.3,39.7,29.35,SSE,147,3.1,3.1,34,0.00,,,0.00,VWS V14.01,2013-10-10 15:03:00,
2013-10-10 10:05:00,69.6,40.0,29.35,South,175,3.1,4.9,34,0.00,,,0.00,VWS V14.01,2013-10-10 15:05:00,
2013-10-10 10:07:00,69.8,40.2,29.35,South,188,2.7,3.6,34,0.00,,,0.00,VWS V14.01,2013-10-10 15:07:00,
2013-10-10 10:08:00,70.0,40.3,29.35,SE,138,0.0,5.8,34,0.00,,,0.00,VWS V14.01,2013-10-10 15:08:00,
2013-10-10 10:09:00,70.0,40.3,29.35,SE,138,0.0,5.8,34,0.00,,,0.00,VWS V14.01,2013-10-10 15:09:00,
2013-10-10 10:10:00,70.0,40.3,29.35,South,174,5.8,5.8,34,0.00,,,0.00,VWS V14.01,2013-10-10 15:10:00,
2013-10-10 10:14:00,70.2,40.5,29.35,SW,218,4.9,6.3,34,0.00,,,0.00,VWS V14.01,2013-10-10 15:14:00,
2013-10-10 10:15:00,70.3,40.7,29.35,SSW,211,7.2,7.2,34,0.00,,,0.00,VWS V14.01,2013-10-10 15:15:00,
2013-10-10 10:16:00,70.3,40.7,29.35,SSW,208,5.8,5.8,34,0.00,,,0.00,VWS V14.01,2013-10-10 15:16:00,
2013-10-10 10:17:00,70.5,40.8,29.35,SW,219,7.6,7.6,34,0.00,,,0.00,VWS V14.01,2013-10-10 15:17:00,
2013-10-10 10:19:00,70.7,41.0,29.35,SW,228,5.4,5.4,34,0.00,,,0.00,VWS V14.01,2013-10-10 15:19:00,
2013-10-10 10:20:00,70.7,41.0,29.35,SW,228,6.3,6.3,34,0.00,,,0.00,VWS V14.01,2013-10-10 15:20:00,
2013-10-10 10:21:00,70.7,41.0,29.35,South,171,5.8,6.3,34,0.00,,,0.00,VWS V14.01,2013-10-10 15:21:00,
2013-10-10 10:22:00,70.9,41.1,29.35,SE,131,3.6,5.4,34,0.00,,,0.00,VWS V14.01,2013-10-10 15:22:00,
2013-10-10 10:24:00,71.1,41.3,29.35,SW,217,5.4,5.4,34,0.00,,,0.00,VWS V14.01,2013-10-10 15:24:00,
2013-10-10 10:26:00,71.4,41.6,29.35,SE,126,7.6,8.1,34,0.00,,,0.00,VWS V14.01,2013-10-10 15:26:00,
2013-10-10 10:27:00,71.6,40.2,29.35,SSE,168,4.0,5.4,32,0.00,,,0.00,VWS V14.01,2013-10-10 15:27:00,
2013-10-10 10:29:00,72.0,40.5,29.35,South,175,4.0,6.3,32,0.00,,,0.00,VWS V14.01,2013-10-10 15:29:00,
2013-10-10 10:30:00,72.0,40.5,29.35,SSW,193,3.1,6.3,32,0.00,,,0.00,VWS V14.01,2013-10-10 15:30:00,
2013-10-10 10:31:00,72.0,40.5,29.35,South,178,5.4,6.7,32,0.00,,CLR,0.00,VWS V14.01,2013-10-10 15:31:00,
2013-10-10 10:32:00,72.1,40.7,29.35,SSE,168,6.3,6.7,32,0.00,,CLR,0.00,VWS V14.01,2013-10-10 15:32:00,
2013-10-10 10:33:00,72.1,40.7,29.35,SSW,203,5.8,6.7,32,0.00,,CLR,0.00,VWS V14.01,2013-10-10 15:33:00,
2013-10-10 10:35:00,72.3,40.8,29.35,South,175,6.3,6.3,32,0.00,,CLR,0.00,VWS V14.01,2013-10-10 15:35:00,
2013-10-10 10:36:00,72.3,40.8,29.35,South,178,6.3,6.3,32,0.00,,CLR,0.00,VWS V14.01,2013-10-10 15:36:00,
2013-10-10 10:37:00,72.5,41.0,29.35,SSE,167,5.4,5.8,32,0.00,,CLR,0.00,VWS V14.01,2013-10-10 15:37:00,
2013-10-10 10:38:00,72.5,41.0,29.35,South,191,6.3,6.3,32,0.00,,CLR,0.00,VWS V14.01,2013-10-10 15:38:00,
2013-10-10 10:41:00,72.7,41.2,29.35,SSW,206,5.8,5.8,32,0.00,,CLR,0.00,VWS V14.01,2013-10-10 15:41:00,
2013-10-10 10:42:00,72.7,41.2,29.35,SSW,211,8.1,8.7,32,0.00,,CLR,0.00,VWS V14.01,2013-10-10 15:42:00,
2013-10-10 10:43:00,72.7,41.2,29.35,SSW,204,8.1,8.7,32,0.00,,CLR,0.00,VWS V14.01,2013-10-10 15:43:00,
2013-10-10 10:44:00,72.9,41.3,29.35,SSW,199,7.2,7.2,32,0.00,,CLR,0.00,VWS V14.01,2013-10-10 15:44:00,
2013-10-10 10:46:00,73.0,41.5,29.35,South,179,8.7,8.7,32,0.00,,CLR,0.00,VWS V14.01,2013-10-10 15:46:00,
2013-10-10 10:47:00,73.0,41.5,29.35,SSE,166,8.7,8.7,32,0.00,,CLR,0.00,VWS V14.01,2013-10-10 15:47:00,
2013-10-10 10:48:00,73.2,41.6,29.35,SSW,210,7.6,8.3,32,0.00,,CLR,0.00,VWS V14.01,2013-10-10 15:48:00,
2013-10-10 10:50:00,73.2,41.6,29.35,SSE,153,5.8,8.3,32,0.00,,CLR,0.00,VWS V14.01,2013-10-10 15:50:00,
2013-10-10 10:51:00,73.4,41.8,29.35,South,188,4.9,4.9,32,0.00,,CLR,0.00,VWS V14.01,2013-10-10 15:51:00,
2013-10-10 10:53:00,73.4,41.8,29.35,SW,221,5.4,6.3,32,0.00,,CLR,0.00,VWS V14.01,2013-10-10 15:53:00,
2013-10-10 10:54:00,73.4,41.8,29.35,SW,219,7.6,7.6,32,0.00,,CLR,0.00,VWS V14.01,2013-10-10 15:54:00,
2013-10-10 10:55:00,73.4,41.8,29.35,SSW,203,7.6,7.6,32,0.00,,CLR,0.00,VWS V14.01,2013-10-10 15:55:00,
2013-10-10 10:58:00,73.4,41.8,29.35,South,181,7.2,7.2,32,0.00,,CLR,0.00,VWS V14.01,2013-10-10 15:58:00,
2013-10-10 10:59:00,73.4,41.8,29.35,South,184,5.4,7.2,32,0.00,,CLR,0.00,VWS V14.01,2013-10-10 15:59:00,
2013-10-10 11:00:00,73.4,41.8,29.35,SE,136,5.8,7.6,32,0.00,,CLR,0.00,VWS V14.01,2013-10-10 16:00:00,
2013-10-10 11:04:00,73.2,41.6,29.35,South,181,3.1,7.6,32,0.00,,CLR,0.00,VWS V14.01,2013-10-10 16:04:00,
2013-10-10 11:05:00,73.2,41.6,29.35,SSW,201,8.3,8.3,32,0.00,,CLR,0.00,VWS V14.01,2013-10-10 16:05:00,
2013-10-10 11:06:00,72.9,41.3,29.35,SSW,193,7.6,8.3,32,0.00,,CLR,0.00,VWS V14.01,2013-10-10 16:06:00,
2013-10-10 11:07:00,72.9,41.3,29.35,South,184,7.6,7.6,32,0.00,,CLR,0.00,VWS V14.01,2013-10-10 16:07:00,
2013-10-10 11:09:00,73.2,41.6,29.32,SSE,162,6.3,6.3,32,0.00,,CLR,0.00,VWS V14.01,2013-10-10 16:09:00,
2013-10-10 11:10:00,73.4,41.8,29.32,SE,126,7.6,7.6,32,0.00,,CLR,0.00,VWS V14.01,2013-10-10 16:10:00,
2013-10-10 11:11:00,73.4,41.8,29.32,South,185,8.1,8.1,32,0.00,,CLR,0.00,VWS V14.01,2013-10-10 16:11:00,
2013-10-10 11:12:00,73.8,42.1,29.32,South,188,10.1,10.1,32,0.00,,CLR,0.00,VWS V14.01,2013-10-10 16:12:00,
2013-10-10 11:14:00,73.9,42.2,29.32,SSW,208,8.1,8.1,32,0.00,,CLR,0.00,VWS V14.01,2013-10-10 16:14:00,
2013-10-10 11:17:00,74.1,42.4,29.32,SSW,196,7.6,7.6,32,0.00,,CLR,0.00,VWS V14.01,2013-10-10 16:17:00,
2013-10-10 11:18:00,74.1,42.4,29.32,South,188,10.1,10.1,32,0.00,,CLR,0.00,VWS V14.01,2013-10-10 16:18:00,
2013-10-10 11:20:00,74.3,42.6,29.32,South,179,8.1,8.7,32,0.00,,CLR,0.00,VWS V14.01,2013-10-10 16:20:00,
2013-10-10 11:22:00,74.3,42.6,29.32,SE,140,5.4,7.6,32,0.00,,CLR,0.00,VWS V14.01,2013-10-10 16:22:00,
2013-10-10 11:23:00,74.5,42.7,29.32,South,187,3.1,3.1,32,0.00,,CLR,0.00,VWS V14.01,2013-10-10 16:23:00,
2013-10-10 11:24:00,74.5,42.7,29.32,SW,216,4.0,4.0,32,0.00,,CLR,0.00,VWS V14.01,2013-10-10 16:24:00,
2013-10-10 11:25:00,74.7,42.9,29.32,SSE,165,6.7,8.1,32,0.00,,CLR,0.00,VWS V14.01,2013-10-10 16:25:00,
2013-10-10 11:26:00,74.8,43.0,29.32,South,191,5.8,7.6,32,0.00,,CLR,0.00,VWS V14.01,2013-10-10 16:26:00,
2013-10-10 11:27:00,75.0,43.2,29.32,South,188,7.6,8.7,32,0.00,,CLR,0.00,VWS V14.01,2013-10-10 16:27:00,
2013-10-10 11:28:00,75.0,43.2,29.32,SSW,206,8.1,8.1,32,0.00,,CLR,0.00,VWS V14.01,2013-10-10 16:28:00,
2013-10-10 11:29:00,74.8,43.0,29.32,South,183,10.5,10.5,32,0.00,,CLR,0.00,VWS V14.01,2013-10-10 16:29:00,
2013-10-10 11:31:00,74.3,42.6,29.32,South,175,7.2,10.1,32,0.00,,CLR,0.00,VWS V14.01,2013-10-10 16:31:00,
2013-10-10 11:32:00,73.9,42.2,29.32,South,182,5.8,5.8,32,0.00,,CLR,0.00,VWS V14.01,2013-10-10 16:32:00,
2013-10-10 11:34:00,73.8,42.1,29.32,SSE,152,4.0,6.3,32,0.00,,CLR,0.00,VWS V14.01,2013-10-10 16:34:00,
2013-10-10 11:35:00,73.8,42.1,29.32,SE,135,3.1,6.3,32,0.00,,CLR,0.00,VWS V14.01,2013-10-10 16:35:00,
2013-10-10 11:36:00,73.9,42.2,29.32,South,184,5.4,6.3,32,0.00,,CLR,0.00,VWS V14.01,2013-10-10 16:36:00,
2013-10-10 11:37:00,74.1,42.4,29.32,SSW,193,7.6,8.7,32,0.00,,CLR,0.00,VWS V14.01,2013-10-10 16:37:00,
2013-10-10 11:38:00,74.3,42.6,29.32,South,178,6.3,6.3,32,0.00,,CLR,0.00,VWS V14.01,2013-10-10 16:38:00,
2013-10-10 11:40:00,74.7,42.9,29.32,SSW,204,5.8,6.3,32,0.00,,CLR,0.00,VWS V14.01,2013-10-10 16:40:00,
2013-10-10 11:42:00,75.0,43.2,29.32,SW,221,6.3,6.3,32,0.00,,CLR,0.00,VWS V14.01,2013-10-10 16:42:00,
2013-10-10 11:43:00,75.0,43.2,29.32,SW,231,7.6,7.6,32,0.00,,CLR,0.00,VWS V14.01,2013-10-10 16:43:00,
2013-10-10 11:44:00,75.2,41.7,29.32,South,178,9.2,9.2,30,0.00,,CLR,0.00,VWS V14.01,2013-10-10 16:44:00,
2013-10-10 11:46:00,75.7,42.1,29.32,SW,215,8.3,10.1,30,0.00,,CLR,0.00,VWS V14.01,2013-10-10 16:46:00,
2013-10-10 11:48:00,75.7,42.1,29.32,SW,224,12.3,12.3,30,0.00,,CLR,0.00,VWS V14.01,2013-10-10 16:48:00,
2013-10-10 11:49:00,75.9,42.3,29.32,SE,145,8.1,12.3,30,0.00,,CLR,0.00,VWS V14.01,2013-10-10 16:49:00,
2013-10-10 11:52:00,76.1,42.5,29.32,South,170,4.0,4.0,30,0.00,,CLR,0.00,VWS V14.01,2013-10-10 16:52:00,
2013-10-10 11:53:00,76.1,42.5,29.32,SSW,207,11.4,11.4,30,0.00,,CLR,0.00,VWS V14.01,2013-10-10 16:53:00,
2013-10-10 11:54:00,75.9,42.3,29.32,SSE,153,10.5,10.5,30,0.00,,CLR,0.00,VWS V14.01,2013-10-10 16:54:00,
2013-10-10 11:56:00,75.9,42.3,29.32,South,179,8.1,8.1,30,0.00,,CLR,0.00,VWS V14.01,2013-10-10 16:56:00,
2013-10-10 11:57:00,75.9,42.3,29.32,SSW,208,4.9,4.9,30,0.00,,CLR,0.00,VWS V14.01,2013-10-10 16:57:00,
2013-10-10 11:58:00,76.1,42.5,29.32,SSE,156,7.2,8.1,30,0.00,,CLR,0.00,VWS V14.01,2013-10-10 16:58:00,
2013-10-10 11:59:00,76.1,42.5,29.32,South,182,8.3,8.3,30,0.00,,CLR,0.00,VWS V14.01,2013-10-10 16:59:00,
2013-10-10 12:00:00,76.3,42.6,29.32,SSE,164,3.6,4.0,30,0.00,,CLR,0.00,VWS V14.01,2013-10-10 17:00:00,
2013-10-10 12:01:00,76.3,42.6,29.32,South,170,4.0,4.0,30,0.00,,CLR,0.00,VWS V14.01,2013-10-10 17:01:00,
2013-10-10 12:02:00,76.5,42.8,29.32,SSW,212,5.4,5.4,30,0.00,,CLR,0.00,VWS V14.01,2013-10-10 17:02:00,
2013-10-10 12:04:00,76.6,42.9,29.32,SSW,203,8.3,8.3,30,0.00,,CLR,0.00,VWS V14.01,2013-10-10 17:04:00,
2013-10-10 12:05:00,76.6,42.9,29.32,SW,225,12.8,12.8,30,0.00,,CLR,0.00,VWS V14.01,2013-10-10 17:05:00,
2013-10-10 12:06:00,76.6,42.9,29.32,South,191,8.1,12.8,30,0.00,,CLR,0.00,VWS V14.01,2013-10-10 17:06:00,
2013-10-10 12:08:00,76.6,42.9,29.32,South,176,8.7,10.1,30,0.00,,CLR,0.00,VWS V14.01,2013-10-10 17:08:00,
2013-10-10 12:09:00,76.5,42.8,29.29,South,184,8.7,8.7,30,0.00,,CLR,0.00,VWS V14.01,2013-10-10 17:09:00,
2013-10-10 12:10:00,76.5,42.8,29.29,SSE,160,8.7,8.7,30,0.00,,CLR,0.00,VWS V14.01,2013-10-10 17:10:00,
2013-10-10 12:11:00,76.5,42.8,29.29,SSW,200,7.6,10.1,30,0.00,,CLR,0.00,VWS V14.01,2013-10-10 17:11:00,
2013-10-10 12:12:00,76.5,42.8,29.29,SSW,196,8.3,12.3,30,0.00,,CLR,0.00,VWS V14.01,2013-10-10 17:12:00,
2013-10-10 12:13:00,76.3,42.6,29.29,SW,219,12.8,12.8,30,0.00,,CLR,0.00,VWS V14.01,2013-10-10 17:13:00,
2013-10-10 12:16:00,76.3,42.6,29.29,South,191,7.6,10.1,30,0.00,,CLR,0.00,VWS V14.01,2013-10-10 17:16:00,
2013-10-10 12:17:00,76.5,42.8,29.29,South,181,8.3,10.1,30,0.00,,CLR,0.00,VWS V14.01,2013-10-10 17:17:00,
2013-10-10 12:18:00,76.3,42.6,29.29,SSW,195,11.0,11.0,30,0.00,,CLR,0.00,VWS V14.01,2013-10-10 17:18:00,
2013-10-10 12:21:00,76.5,42.8,29.29,SSE,160,8.1,8.3,30,0.00,,CLR,0.00,VWS V14.01,2013-10-10 17:21:00,
2013-10-10 12:23:00,76.6,42.9,29.29,ESE,111,4.0,8.3,30,0.00,,CLR,0.00,VWS V14.01,2013-10-10 17:23:00,
2013-10-10 12:24:00,76.8,43.1,29.29,SSW,198,3.6,5.4,30,0.00,,CLR,0.00,VWS V14.01,2013-10-10 17:24:00,
2013-10-10 12:26:00,77.2,43.4,29.29,SSW,196,7.6,7.6,30,0.00,,CLR,0.00,VWS V14.01,2013-10-10 17:26:00,
2013-10-10 12:28:00,77.2,43.4,29.29,South,189,8.7,8.7,30,0.00,,CLR,0.00,VWS V14.01,2013-10-10 17:28:00,
2013-10-10 12:29:00,77.4,43.5,29.29,South,186,11.0,12.3,30,0.00,,CLR,0.00,VWS V14.01,2013-10-10 17:29:00,
2013-10-10 12:30:00,77.5,43.7,29.29,SSW,194,8.7,12.3,30,0.00,,CLR,0.00,VWS V14.01,2013-10-10 17:30:00,
2013-10-10 12:31:00,77.5,43.7,29.29,SSE,159,5.4,10.5,30,0.00,,CLR,0.00,VWS V14.01,2013-10-10 17:31:00,
2013-10-10 12:32:00,77.5,43.7,29.29,SE,138,8.1,8.1,30,0.00,,CLR,0.00,VWS V14.01,2013-10-10 17:32:00,
2013-10-10 12:34:00,77.5,43.7,29.29,SSE,156,8.7,8.7,30,0.00,,CLR,0.00,VWS V14.01,2013-10-10 17:34:00,
2013-10-10 12:35:00,77.5,43.7,29.29,SSW,198,4.0,8.7,30,0.00,,CLR,0.00,VWS V14.01,2013-10-10 17:35:00,
2013-10-10 12:37:00,77.4,43.5,29.29,South,177,8.3,8.7,30,0.00,,CLR,0.00,VWS V14.01,2013-10-10 17:37:00,
2013-10-10 12:38:00,77.5,43.7,29.29,SSE,162,5.8,8.7,30,0.00,,CLR,0.00,VWS V14.01,2013-10-10 17:38:00,
2013-10-10 12:40:00,77.5,43.7,29.29,SE,135,5.8,8.1,30,0.00,,CLR,0.00,VWS V14.01,2013-10-10 17:40:00,
2013-10-10 12:41:00,77.7,43.8,29.29,South,175,8.3,8.3,30,0.00,,CLR,0.00,VWS V14.01,2013-10-10 17:41:00,
2013-10-10 12:42:00,77.7,43.8,29.29,SSW,192,10.1,13.2,30,0.00,,CLR,0.00,VWS V14.01,2013-10-10 17:42:00,
2013-10-10 12:43:00,77.9,44.0,29.29,South,179,8.1,13.2,30,0.00,,CLR,0.00,VWS V14.01,2013-10-10 17:43:00,
2013-10-10 12:45:00,78.1,44.2,29.29,SSW,210,7.6,7.6,30,0.00,,CLR,0.00,VWS V14.01,2013-10-10 17:45:00,
2013-10-10 12:46:00,78.1,44.2,29.29,SSW,208,8.1,9.2,30,0.00,,CLR,0.00,VWS V14.01,2013-10-10 17:46:00,
2013-10-10 12:47:00,78.1,44.2,29.29,SSW,195,12.3,12.3,30,0.00,,CLR,0.00,VWS V14.01,2013-10-10 17:47:00,
2013-10-10 12:48:00,78.1,44.2,29.29,SSW,193,12.8,12.8,30,0.00,,CLR,0.00,VWS V14.01,2013-10-10 17:48:00,
2013-10-10 12:50:00,77.9,44.0,29.29,SSW,203,8.7,11.0,30,0.00,,CLR,0.00,VWS V14.01,2013-10-10 17:50:00,
2013-10-10 12:51:00,77.9,44.0,29.29,SSW,202,11.0,12.8,30,0.00,,CLR,0.00,VWS V14.01,2013-10-10 17:51:00,
2013-10-10 12:53:00,78.1,44.2,29.29,SW,226,8.3,8.7,30,0.00,,CLR,0.00,VWS V14.01,2013-10-10 17:53:00,
2013-10-10 12:54:00,78.1,44.2,29.26,SW,229,10.1,10.5,30,0.00,,CLR,0.00,VWS V14.01,2013-10-10 17:54:00,
2013-10-10 12:56:00,78.3,44.3,29.26,SSE,148,5.4,10.5,30,0.00,,CLR,0.00,VWS V14.01,2013-10-10 17:56:00,
2013-10-10 12:58:00,78.4,44.5,29.26,SSW,210,13.6,13.6,30,0.00,,CLR,0.00,VWS V14.01,2013-10-10 17:58:00,
2013-10-10 12:59:00,78.4,44.5,29.26,SSW,213,12.8,13.6,30,0.00,,CLR,0.00,VWS V14.01,2013-10-10 17:59:00,
2013-10-10 13:00:00,78.3,44.3,29.26,SSW,196,11.0,12.8,30,0.00,,CLR,0.00,VWS V14.01,2013-10-10 18:00:00,
2013-10-10 13:01:00,78.1,44.2,29.26,SSW,197,8.3,11.0,30,0.00,,CLR,0.00,VWS V14.01,2013-10-10 18:01:00,
2013-10-10 13:02:00,78.1,44.2,29.26,South,175,8.7,11.0,30,0.00,,CLR,0.00,VWS V14.01,2013-10-10 18:02:00,
2013-10-10 13:04:00,78.1,44.2,29.26,South,174,11.9,11.9,30,0.00,,CLR,0.00,VWS V14.01,2013-10-10 18:04:00,
2013-10-10 13:06:00,78.1,44.2,29.26,SE,139,5.4,5.4,30,0.00,,CLR,0.00,VWS V14.01,2013-10-10 18:06:00,
2013-10-10 13:07:00,78.1,44.2,29.26,SW,222,7.6,7.6,30,0.00,,CLR,0.00,VWS V14.01,2013-10-10 18:07:00,
2013-10-10 13:09:00,78.3,44.3,29.26,South,174,7.6,7.6,30,0.00,,CLR,0.00,VWS V14.01,2013-10-10 18:09:00,
2013-10-10 13:10:00,78.4,44.5,29.26,South,174,7.6,7.6,30,0.00,,CLR,0.00,VWS V14.01,2013-10-10 18:10:00,
2013-10-10 13:12:00,78.4,44.5,29.26,SSE,162,5.4,8.3,30,0.00,,CLR,0.00,VWS V14.01,2013-10-10 18:12:00,
2013-10-10 13:14:00,78.6,44.6,29.26,South,173,8.3,8.3,30,0.00,,CLR,0.00,VWS V14.01,2013-10-10 18:14:00,
2013-10-10 13:15:00,78.6,44.6,29.26,SSE,168,7.6,8.7,30,0.00,,CLR,0.00,VWS V14.01,2013-10-10 18:15:00,
2013-10-10 13:17:00,78.6,44.6,29.26,SSE,159,4.0,6.3,30,0.00,,CLR,0.00,VWS V14.01,2013-10-10 18:17:00,
2013-10-10 13:18:00,78.6,44.6,29.26,SSE,150,3.1,4.0,30,0.00,,CLR,0.00,VWS V14.01,2013-10-10 18:18:00,
2013-10-10 13:19:00,78.6,44.6,29.26,South,177,6.3,8.1,30,0.00,,CLR,0.00,VWS V14.01,2013-10-10 18:19:00,
2013-10-10 13:20:00,78.8,44.8,29.26,South,190,10.1,10.1,30,0.00,,CLR,0.00,VWS V14.01,2013-10-10 18:20:00,
2013-10-10 13:21:00,78.8,44.8,29.26,SSE,152,3.1,10.5,30,0.00,,CLR,0.00,VWS V14.01,2013-10-10 18:21:00,
2013-10-10 13:22:00,78.8,44.8,29.26,South,170,7.6,8.7,30,0.00,,CLR,0.00,VWS V14.01,2013-10-10 18:22:00,
2013-10-10 13:23:00,79.0,44.9,29.26,SSE,166,7.6,8.7,30,0.00,,CLR,0.00,VWS V14.01,2013-10-10 18:23:00,
2013-10-10 13:25:00,78.8,44.8,29.26,SE,141,8.1,11.4,30,0.00,,CLR,0.00,VWS V14.01,2013-10-10 18:25:00,
2013-10-10 13:26:00,79.0,44.9,29.26,SSE,158,4.5,8.3,30,0.00,,CLR,0.00,VWS V14.01,2013-10-10 18:26:00,
2013-10-10 13:28:00,79.0,44.9,29.26,South,184,8.3,8.3,30,0.00,,CLR,0.00,VWS V14.01,2013-10-10 18:28:00,
2013-10-10 13:31:00,79.0,44.9,29.26,SSE,156,6.7,6.7,30,0.00,,CLR,0.00,VWS V14.01,2013-10-10 18:31:00,
2013-10-10 13:33:00,79.2,45.1,29.26,ESE,123,3.1,5.4,30,0.00,,CLR,0.00,VWS V14.01,2013-10-10 18:33:00,
2013-10-10 13:34:00,79.2,45.1,29.26,SSE,156,3.1,4.0,30,0.00,,CLR,0.00,VWS V14.01,2013-10-10 18:34:00,
2013-10-10 13:36:00,79.3,45.2,29.26,SSW,202,11.0,11.0,30,0.00,,CLR,0.00,VWS V14.01,2013-10-10 18:36:00,
2013-10-10 13:37:00,79.3,45.2,29.26,SW,221,9.2,11.0,30,0.00,,CLR,0.00,VWS V14.01,2013-10-10 18:37:00,
2013-10-10 13:38:00,79.3,45.2,29.26,South,182,6.3,9.2,30,0.00,,CLR,0.00,VWS V14.01,2013-10-10 18:38:00,
2013-10-10 13:39:00,79.3,45.2,29.23,SSW,197,8.1,8.1,30,0.00,,CLR,0.00,VWS V14.01,2013-10-10 18:39:00,
2013-10-10 13:40:00,79.5,45.4,29.23,South,178,8.1,8.1,30,0.00,,CLR,0.00,VWS V14.01,2013-10-10 18:40:00,
2013-10-10 13:41:00,79.5,45.4,29.23,SE,137,3.6,5.8,30,0.00,,CLR,0.00,VWS V14.01,2013-10-10 18:41:00,
2013-10-10 13:42:00,79.5,45.4,29.23,SSE,167,8.3,8.3,30,0.00,,CLR,0.00,VWS V14.01,2013-10-10 18:42:00,
2013-10-10 13:43:00,79.5,45.4,29.23,SSE,164,8.3,12.8,30,0.00,,CLR,0.00,VWS V14.01,2013-10-10 18:43:00,
2013-10-10 13:45:00,79.7,45.6,29.23,South,178,10.5,10.5,30,0.00,,CLR,0.00,VWS V14.01,2013-10-10 18:45:00,
2013-10-10 13:46:00,79.7,45.6,29.23,SSW,198,10.5,10.5,30,0.00,,CLR,0.00,VWS V14.01,2013-10-10 18:46:00,
2013-10-10 13:47:00,79.5,45.4,29.23,South,172,8.3,10.5,30,0.00,,CLR,0.00,VWS V14.01,2013-10-10 18:47:00,
2013-10-10 13:48:00,79.5,45.4,29.23,South,181,8.7,8.7,30,0.00,,CLR,0.00,VWS V14.01,2013-10-10 18:48:00,
2013-10-10 13:51:00,79.5,45.4,29.23,SW,214,8.1,10.1,30,0.00,,CLR,0.00,VWS V14.01,2013-10-10 18:51:00,
2013-10-10 13:53:00,79.7,45.6,29.23,SSE,163,6.3,6.3,30,0.00,,CLR,0.00,VWS V14.01,2013-10-10 18:53:00,
2013-10-10 13:54:00,79.7,45.6,29.23,SSE,148,11.4,11.4,30,0.00,,CLR,0.00,VWS V14.01,2013-10-10 18:54:00,
2013-10-10 13:55:00,79.7,45.6,29.23,South,187,7.6,11.4,30,0.00,,CLR,0.00,VWS V14.01,2013-10-10 18:55:00,
2013-10-10 13:57:00,79.9,45.7,29.23,SE,136,8.7,8.7,30,0.00,,CLR,0.00,VWS V14.01,2013-10-10 18:57:00,
2013-10-10 13:58:00,79.9,45.7,29.23,South,171,5.8,6.3,30,0.00,,CLR,0.00,VWS V14.01,2013-10-10 18:58:00,
2013-10-10 14:00:00,79.9,45.7,29.23,South,173,3.6,3.6,30,0.00,,CLR,0.00,VWS V14.01,2013-10-10 19:00:00,
2013-10-10 14:02:00,80.1,45.9,29.23,South,187,7.6,8.1,30,0.00,,CLR,0.00,VWS V14.01,2013-10-10 19:02:00,
2013-10-10 14:03:00,80.1,45.9,29.23,South,179,4.0,7.6,30,0.00,,CLR,0.00,VWS V14.01,2013-10-10 19:03:00,
2013-10-10 14:04:00,80.2,46.0,29.23,SSW,195,5.4,8.1,30,0.00,,CLR,0.00,VWS V14.01,2013-10-10 19:04:00,
2013-10-10 14:05:00,80.2,46.0,29.23,South,191,8.7,11.0,30,0.00,,CLR,0.00,VWS V14.01,2013-10-10 19:05:00,
2013-10-10 14:08:00,80.4,46.2,29.23,SW,214,10.1,11.0,30,0.00,,CLR,0.00,VWS V14.01,2013-10-10 19:08:00,
2013-10-10 14:09:00,80.4,46.2,29.23,SSW,199,12.3,13.2,30,0.00,,CLR,0.00,VWS V14.01,2013-10-10 19:09:00,
2013-10-10 14:11:00,80.4,46.2,29.23,SSW,195,8.1,8.3,30,0.00,,CLR,0.00,VWS V14.01,2013-10-10 19:11:00,
2013-10-10 14:12:00,80.4,46.2,29.23,SW,232,10.5,10.5,30,0.00,,CLR,0.00,VWS V14.01,2013-10-10 19:12:00,
2013-10-10 14:13:00,80.2,46.0,29.23,South,190,10.5,11.0,30,0.00,,CLR,0.00,VWS V14.01,2013-10-10 19:13:00,
2013-10-10 14:14:00,80.4,46.2,29.23,South,190,5.4,5.4,30,0.00,,CLR,0.00,VWS V14.01,2013-10-10 19:14:00,
2013-10-10 14:16:00,80.8,44.7,29.23,SE,129,3.6,4.9,28,0.00,,CLR,0.00,VWS V14.01,2013-10-10 19:16:00,
2013-10-10 14:19:00,81.0,44.8,29.23,ESE,114,9.6,9.6,28,0.00,,CLR,0.00,VWS V14.01,2013-10-10 19:19:00,
2013-10-10 14:20:00,81.0,44.8,29.23,South,184,3.1,9.6,28,0.00,,CLR,0.00,VWS V14.01,2013-10-10 19:20:00,
2013-10-10 14:22:00,81.1,45.0,29.23,South,189,8.1,8.3,28,0.00,,CLR,0.00,VWS V14.01,2013-10-10 19:22:00,
2013-10-10 14:24:00,81.1,45.0,29.21,SSE,153,5.8,6.3,28,0.00,,CLR,0.00,VWS V14.01,2013-10-10 19:24:00,
2013-10-10 14:25:00,81.1,45.0,29.21,SSE,150,2.7,2.7,28,0.00,,CLR,0.00,VWS V14.01,2013-10-10 19:25:00,
2013-10-10 14:26:00,81.3,45.1,29.21,SSE,148,0.0,2.7,28,0.00,,CLR,0.00,VWS V14.01,2013-10-10 19:26:00,
2013-10-10 14:27:00,81.3,45.1,29.21,South,181,8.7,8.7,28,0.00,,CLR,0.00,VWS V14.01,2013-10-10 19:27:00,
2013-10-10 14:28:00,81.5,45.3,29.21,SE,142,8.7,10.1,28,0.00,,CLR,0.00,VWS V14.01,2013-10-10 19:28:00,
2013-10-10 14:30:00,81.5,45.3,29.21,SE,128,4.0,8.1,28,0.00,,CLR,0.00,VWS V14.01,2013-10-10 19:30:00,
2013-10-10 14:32:00,81.5,45.3,29.21,SW,224,5.8,6.3,28,0.00,,CLR,0.00,VWS V14.01,2013-10-10 19:32:00,
2013-10-10 14:33:00,81.5,45.3,29.21,SW,227,10.1,10.1,28,0.00,,CLR,0.00,VWS V14.01,2013-10-10 19:33:00,
2013-10-10 14:34:00,81.5,45.3,29.21,SSW,201,5.4,10.1,28,0.00,,CLR,0.00,VWS V14.01,2013-10-10 19:34:00,
2013-10-10 14:35:00,81.5,45.3,29.21,SSE,163,6.3,6.3,28,0.00,,CLR,0.00,VWS V14.01,2013-10-10 19:35:00,
2013-10-10 14:36:00,81.5,45.3,29.21,SSW,212,5.4,6.3,28,0.00,,CLR,0.00,VWS V14.01,2013-10-10 19:36:00,
2013-10-10 14:37:00,81.7,45.4,29.21,WSW,238,6.7,8.7,28,0.00,,CLR,0.00,VWS V14.01,2013-10-10 19:37:00,
2013-10-10 14:39:00,81.7,45.4,29.21,South,173,5.8,8.7,28,0.00,,CLR,0.00,VWS V14.01,2013-10-10 19:39:00,
2013-10-10 14:40:00,81.5,45.3,29.21,South,179,6.3,8.1,28,0.00,,CLR,0.00,VWS V14.01,2013-10-10 19:40:00,
2013-10-10 14:41:00,81.5,45.3,29.21,ESE,102,2.7,6.3,28,0.00,,CLR,0.00,VWS V14.01,2013-10-10 19:41:00,
2013-10-10 14:42:00,81.9,45.6,29.21,SSE,161,8.1,8.1,28,0.00,,CLR,0.00,VWS V14.01,2013-10-10 19:42:00,
2013-10-10 14:44:00,81.9,45.6,29.21,South,169,7.2,10.5,28,0.00,,CLR,0.00,VWS V14.01,2013-10-10 19:44:00,
2013-10-10 14:45:00,81.9,45.6,29.21,South,181,5.4,6.3,28,0.00,,CLR,0.00,VWS V14.01,2013-10-10 19:45:00,
2013-10-10 14:46:00,81.9,45.6,29.21,SSE,156,4.0,5.8,28,0.00,,CLR,0.00,VWS V14.01,2013-10-10 19:46:00,
2013-10-10 14:47:00,81.7,45.4,29.21,SSW,193,5.4,8.7,28,0.00,,CLR,0.00,VWS V14.01,2013-10-10 19:47:00,
2013-10-10 14:51:00,81.9,45.6,29.21,SSE,157,5.8,7.2,28,0.00,,CLR,0.00,VWS V14.01,2013-10-10 19:51:00,
2013-10-10 14:52:00,81.9,45.6,29.21,SSE,158,7.6,8.3,28,0.00,,CLR,0.00,VWS V14.01,2013-10-10 19:52:00,
2013-10-10 14:53:00,81.9,45.6,29.21,SSE,152,6.3,7.6,28,0.00,,CLR,0.00,VWS V14.01,2013-10-10 19:53:00,
2013-10-10 14:57:00,81.7,45.4,29.21,South,172,4.0,8.3,28,0.00,,CLR,0.00,VWS V14.01,2013-10-10 19:57:00,
2013-10-10 14:58:00,81.5,45.3,29.21,SSE,163,6.7,6.7,28,0.00,,CLR,0.00,VWS V14.01,2013-10-10 19:58:00,
2013-10-10 14:59:00,81.5,45.3,29.21,SSE,168,4.0,8.3,28,0.00,,CLR,0.00,VWS V14.01,2013-10-10 19:59:00,
2013-10-10 15:03:00,81.5,45.3,29.21,South,190,7.6,11.0,28,0.00,,CLR,0.00,VWS V14.01,2013-10-10 20:03:00,
2013-10-10 15:04:00,81.5,45.3,29.21,South,183,5.8,12.8,28,0.00,,CLR,0.00,VWS V14.01,2013-10-10 20:04:00,
2013-10-10 15:08:00,81.3,45.1,29.21,SSE,168,3.6,3.6,28,0.00,,CLR,0.00,VWS V14.01,2013-10-10 20:08:00,
2013-10-10 15:09:00,81.3,45.1,29.21,SE,144,3.6,4.9,28,0.00,,CLR,0.00,VWS V14.01,2013-10-10 20:09:00,
2013-10-10 15:10:00,81.5,45.3,29.21,ESE,119,4.0,4.0,28,0.00,,CLR,0.00,VWS V14.01,2013-10-10 20:10:00,
2013-10-10 15:14:00,81.9,45.6,29.21,SE,136,3.1,5.8,28,0.00,,CLR,0.00,VWS V14.01,2013-10-10 20:14:00,
2013-10-10 15:16:00,82.0,45.8,29.21,South,184,8.3,8.7,28,0.00,,CLR,0.00,VWS V14.01,2013-10-10 20:16:00,
2013-10-10 15:17:00,82.0,45.8,29.21,SSW,198,8.7,11.4,28,0.00,,CLR,0.00,VWS V14.01,2013-10-10 20:17:00,
2013-10-10 15:19:00,82.0,45.8,29.21,SSE,154,8.1,8.3,28,0.00,,CLR,0.00,VWS V14.01,2013-10-10 20:19:00,
2013-10-10 15:20:00,82.2,45.9,29.21,SSE,157,6.3,8.1,28,0.00,,CLR,0.00,VWS V14.01,2013-10-10 20:20:00,
2013-10-10 15:22:00,82.0,45.8,29.21,SSE,149,5.4,11.4,28,0.00,,CLR,0.00,VWS V14.01,2013-10-10 20:22:00,
2013-10-10 15:23:00,82.0,45.8,29.21,South,185,8.3,8.7,28,0.00,,CLR,0.00,VWS V14.01,2013-10-10 20:23:00,
2013-10-10 15:24:00,82.0,45.8,29.21,SSW,192,10.5,10.5,28,0.00,,CLR,0.00,VWS V14.01,2013-10-10 20:24:00,
2013-10-10 15:25:00,81.9,45.6,29.21,SSW,197,7.6,7.6,28,0.00,,CLR,0.00,VWS V14.01,2013-10-10 20:25:00,
2013-10-10 15:26:00,81.9,45.6,29.21,SW,214,8.1,8.7,28,0.00,,CLR,0.00,VWS V14.01,2013-10-10 20:26:00,
2013-10-10 15:28:00,81.7,45.4,29.21,SSW,211,5.8,8.3,28,0.00,,CLR,0.00,VWS V14.01,2013-10-10 20:28:00,
2013-10-10 15:29:00,81.7,45.4,29.21,SSW,200,7.6,8.7,28,0.00,,CLR,0.00,VWS V14.01,2013-10-10 20:29:00,
2013-10-10 15:30:00,81.7,45.4,29.21,SSW,203,5.4,8.7,28,0.00,,CLR,0.00,VWS V14.01,2013-10-10 20:30:00,
2013-10-10 15:31:00,81.7,45.4,29.21,SW,221,5.8,5.8,28,0.00,,CLR,0.00,VWS V14.01,2013-10-10 20:31:00,
2013-10-10 15:32:00,81.9,45.6,29.21,South,174,6.3,6.3,28,0.00,,CLR,0.00,VWS V14.01,2013-10-10 20:32:00,
2013-10-10 15:35:00,81.9,45.6,29.21,SE,144,8.7,11.0,28,0.00,,CLR,0.00,VWS V14.01,2013-10-10 20:35:00,
2013-10-10 15:36:00,81.9,45.6,29.21,South,189,8.3,8.3,28,0.00,,CLR,0.00,VWS V14.01,2013-10-10 20:36:00,
2013-10-10 15:37:00,81.9,45.6,29.21,SSW,201,5.4,7.6,28,0.00,,CLR,0.00,VWS V14.01,2013-10-10 20:37:00,
2013-10-10 15:38:00,81.7,45.4,29.18,South,182,9.2,9.2,28,0.00,,CLR,0.00,VWS V14.01,2013-10-10 20:38:00,
2013-10-10 15:41:00,81.5,45.3,29.18,South,170,6.3,11.9,28,0.00,,CLR,0.00,VWS V14.01,2013-10-10 20:41:00,
2013-10-10 15:42:00,81.5,45.3,29.18,South,179,7.6,7.6,28,0.00,,CLR,0.00,VWS V14.01,2013-10-10 20:42:00,
2013-10-10 15:44:00,81.5,45.3,29.18,SSW,195,7.2,8.3,28,0.00,,CLR,0.00,VWS V14.01,2013-10-10 20:44:00,
2013-10-10 15:45:00,81.5,45.3,29.18,South,183,8.3,8.3,28,0.00,,CLR,0.00,VWS V14.01,2013-10-10 20:45:00,
2013-10-10 15:47:00,81.5,45.3,29.18,South,177,5.8,6.3,28,0.00,,CLR,0.00,VWS V14.01,2013-10-10 20:47:00,
2013-10-10 15:48:00,81.5,45.3,29.18,East,97,8.3,8.3,28,0.00,,CLR,0.00,VWS V14.01,2013-10-10 20:48:00,
2013-10-10 15:49:00,81.7,45.4,29.18,SSW,192,13.2,13.2,28,0.00,,CLR,0.00,VWS V14.01,2013-10-10 20:49:00,
2013-10-10 15:51:00,81.7,45.4,29.18,South,176,3.6,10.1,28,0.00,,CLR,0.00,VWS V14.01,2013-10-10 20:51:00,
2013-10-10 15:52:00,81.7,45.4,29.18,South,181,6.3,8.3,28,0.00,,CLR,0.00,VWS V14.01,2013-10-10 20:52:00,
2013-10-10 15:53:00,81.7,45.4,29.18,SSE,168,5.4,8.1,28,0.00,,CLR,0.00,VWS V14.01,2013-10-10 20:53:00,
2013-10-10 15:54:00,81.7,45.4,29.18,South,190,3.1,5.4,28,0.00,,CLR,0.00,VWS V14.01,2013-10-10 20:54:00,
2013-10-10 15:57:00,81.9,45.6,29.18,SSE,152,6.3,10.5,28,0.00,,CLR,0.00,VWS V14.01,2013-10-10 20:57:00,
2013-10-10 15:58:00,81.7,45.4,29.18,SE,143,4.9,6.3,28,0.00,,CLR,0.00,VWS V14.01,2013-10-10 20:58:00,
2013-10-10 16:00:00,81.7,45.4,29.18,SE,140,10.5,12.3,28,0.00,,CLR,0.00,VWS V14.01,2013-10-10 21:00:00,
2013-10-10 16:02:00,81.7,45.4,29.18,SE,127,3.6,3.6,28,0.00,,CLR,0.00,VWS V14.01,2013-10-10 21:02:00,
2013-10-10 16:03:00,81.7,45.4,29.18,SSE,161,8.1,8.1,28,0.00,,CLR,0.00,VWS V14.01,2013-10-10 21:03:00,
2013-10-10 16:05:00,81.7,45.4,29.18,SE,146,5.4,6.3,28,0.00,,CLR,0.00,VWS V14.01,2013-10-10 21:05:00,
2013-10-10 16:06:00,81.7,45.4,29.18,South,173,6.3,6.3,28,0.00,,CLR,0.00,VWS V14.01,2013-10-10 21:06:00,
2013-10-10 16:08:00,81.9,45.6,29.18,SE,143,3.6,4.0,28,0.00,,CLR,0.00,VWS V14.01,2013-10-10 21:08:00,
2013-10-10 16:09:00,81.9,45.6,29.18,SSW,192,7.6,7.6,28,0.00,,CLR,0.00,VWS V14.01,2013-10-10 21:09:00,
2013-10-10 16:11:00,81.9,45.6,29.18,SSE,166,4.0,4.0,28,0.00,,CLR,0.00,VWS V14.01,2013-10-10 21:11:00,
2013-10-10 16:12:00,81.9,45.6,29.18,SSE,166,8.1,8.1,28,0.00,,CLR,0.00,VWS V14.01,2013-10-10 21:12:00,
2013-10-10 16:14:00,81.9,45.6,29.18,SE,132,3.6,3.6,28,0.00,,CLR,0.00,VWS V14.01,2013-10-10 21:14:00,
2013-10-10 16:15:00,81.9,45.6,29.18,ESE,121,3.1,3.6,28,0.00,,CLR,0.00,VWS V14.01,2013-10-10 21:15:00,
2013-10-10 16:16:00,81.9,45.6,29.18,ESE,119,2.7,2.7,28,0.00,,CLR,0.00,VWS V14.01,2013-10-10 21:16:00,
2013-10-10 16:18:00,82.0,45.8,29.18,SE,146,4.0,5.8,28,0.00,,CLR,0.00,VWS V14.01,2013-10-10 21:18:00,
2013-10-10 16:19:00,82.0,45.8,29.18,SSE,156,5.8,6.3,28,0.00,,CLR,0.00,VWS V14.01,2013-10-10 21:19:00,
2013-10-10 16:20:00,82.0,45.8,29.18,SSE,161,3.1,4.9,28,0.00,,CLR,0.00,VWS V14.01,2013-10-10 21:20:00,
2013-10-10 16:21:00,82.0,45.8,29.18,SSE,154,4.0,4.0,28,0.00,,CLR,0.00,VWS V14.01,2013-10-10 21:21:00,
2013-10-10 16:22:00,82.0,45.8,29.18,SSE,165,5.8,5.8,28,0.00,,CLR,0.00,VWS V14.01,2013-10-10 21:22:00,
2013-10-10 16:24:00,82.0,45.8,29.18,South,172,3.1,7.6,28,0.00,,CLR,0.00,VWS V14.01,2013-10-10 21:24:00,
2013-10-10 16:25:00,82.0,45.8,29.18,SSE,152,4.0,4.5,28,0.00,,CLR,0.00,VWS V14.01,2013-10-10 21:25:00,
2013-10-10 16:26:00,82.0,45.8,29.18,SE,135,4.0,4.0,28,0.00,,CLR,0.00,VWS V14.01,2013-10-10 21:26:00,
2013-10-10 16:27:00,82.0,45.8,29.18,SSE,150,3.1,5.4,28,0.00,,CLR,0.00,VWS V14.01,2013-10-10 21:27:00,
2013-10-10 16:28:00,82.0,45.8,29.18,SSE,149,4.9,7.6,28,0.00,,CLR,0.00,VWS V14.01,2013-10-10 21:28:00,
2013-10-10 16:29:00,82.0,45.8,29.18,South,173,5.4,5.8,28,0.00,,CLR,0.00,VWS V14.01,2013-10-10 21:29:00,
2013-10-10 16:30:00,82.0,45.8,29.18,SSE,151,6.3,6.3,28,0.00,,CLR,0.00,VWS V14.01,2013-10-10 21:30:00,
2013-10-10 16:31:00,82.0,45.8,29.18,SSE,166,8.7,9.6,28,0.00,,CLR,0.00,VWS V14.01,2013-10-10 21:31:00,
2013-10-10 16:34:00,81.9,45.6,29.18,SSE,155,6.3,6.3,28,0.00,,CLR,0.00,VWS V14.01,2013-10-10 21:34:00,
2013-10-10 16:35:00,81.7,45.4,29.18,South,177,3.6,4.0,28,0.00,,CLR,0.00,VWS V14.01,2013-10-10 21:35:00,
2013-10-10 16:36:00,81.7,45.4,29.18,South,173,2.7,4.0,28,0.00,,CLR,0.00,VWS V14.01,2013-10-10 21:36:00,
2013-10-10 16:39:00,81.7,45.4,29.18,SSE,153,8.7,8.7,28,0.00,,CLR,0.00,VWS V14.01,2013-10-10 21:39:00,
2013-10-10 16:40:00,81.7,45.4,29.18,SSE,161,7.6,8.7,28,0.00,,CLR,0.00,VWS V14.01,2013-10-10 21:40:00,
2013-10-10 16:41:00,81.7,45.4,29.18,SSE,156,4.0,8.7,28,0.00,,CLR,0.00,VWS V14.01,2013-10-10 21:41:00,
2013-10-10 16:43:00,81.5,45.3,29.18,ESE,112,3.1,4.0,28,0.00,,CLR,0.00,VWS V14.01,2013-10-10 21:43:00,
2013-10-10 16:45:00,81.5,45.3,29.18,SE,136,5.4,6.3,28,0.00,,CLR,0.00,VWS V14.01,2013-10-10 21:45:00,
2013-10-10 16:46:00,81.5,45.3,29.18,SSE,154,3.1,3.1,28,0.00,,CLR,0.00,VWS V14.01,2013-10-10 21:46:00,
2013-10-10 16:47:00,81.5,45.3,29.18,SSE,155,3.6,6.3,28,0.00,,CLR,0.00,VWS V14.01,2013-10-10 21:47:00,
2013-10-10 16:48:00,81.5,45.3,29.18,SE,145,4.0,4.0,28,0.00,,CLR,0.00,VWS V14.01,2013-10-10 21:48:00,
2013-10-10 16:50:00,81.5,45.3,29.18,SE,142,0.0,4.0,28,0.00,,CLR,0.00,VWS V14.01,2013-10-10 21:50:00,
2013-10-10 16:51:00,81.3,45.1,29.18,SSE,155,3.1,3.6,28,0.00,,CLR,0.00,VWS V14.01,2013-10-10 21:51:00,
2013-10-10 16:52:00,81.5,45.3,29.18,ESE,123,3.6,4.0,28,0.00,,CLR,0.00,VWS V14.01,2013-10-10 21:52:00,
2013-10-10 16:53:00,81.5,45.3,29.18,SSE,155,3.1,4.0,28,0.00,,CLR,0.00,VWS V14.01,2013-10-10 21:53:00,
2013-10-10 16:54:00,81.5,45.3,29.18,SSE,160,4.9,6.3,28,0.00,,CLR,0.00,VWS V14.01,2013-10-10 21:54:00,
2013-10-10 16:56:00,81.3,45.1,29.18,South,185,5.8,8.3,28,0.00,,CLR,0.00,VWS V14.01,2013-10-10 21:56:00,
2013-10-10 16:57:00,81.3,45.1,29.18,SSW,196,5.8,8.3,28,0.00,,CLR,0.00,VWS V14.01,2013-10-10 21:57:00,
2013-10-10 16:58:00,81.1,45.0,29.18,South,179,8.1,8.1,28,0.00,,CLR,0.00,VWS V14.01,2013-10-10 21:58:00,
2013-10-10 16:59:00,81.1,45.0,29.18,SSE,154,2.7,8.1,28,0.00,,CLR,0.00,VWS V14.01,2013-10-10 21:59:00,
2013-10-10 17:00:00,81.1,45.0,29.18,SSE,159,6.3,6.3,28,0.00,,CLR,0.00,VWS V14.01,2013-10-10 22:00:00,
2013-10-10 17:03:00,81.0,44.8,29.18,SE,130,5.8,8.7,28,0.00,,CLR,0.00,VWS V14.01,2013-10-10 22:03:00,
2013-10-10 17:04:00,81.0,44.8,29.18,South,173,5.4,8.3,28,0.00,,CLR,0.00,VWS V14.01,2013-10-10 22:04:00,
2013-10-10 17:05:00,80.8,44.7,29.18,SSE,153,2.2,6.3,28,0.00,,CLR,0.00,VWS V14.01,2013-10-10 22:05:00,
2013-10-10 17:08:00,80.6,44.5,29.18,SSE,163,2.7,8.7,28,0.00,,CLR,0.00,VWS V14.01,2013-10-10 22:08:00,
2013-10-10 17:09:00,80.6,44.5,29.18,South,170,5.4,5.8,28,0.00,,CLR,0.00,VWS V14.01,2013-10-10 22:09:00,
2013-10-10 17:10:00,80.4,46.2,29.18,South,169,5.8,5.8,30,0.00,,CLR,0.00,VWS V14.01,2013-10-10 22:10:00,
2013-10-10 17:11:00,80.4,46.2,29.18,SE,129,3.6,5.8,30,0.00,,CLR,0.00,VWS V14.01,2013-10-10 22:11:00,
2013-10-10 17:13:00,80.2,46.0,29.18,SE,146,3.6,5.4,30,0.00,,CLR,0.00,VWS V14.01,2013-10-10 22:13:00,
2013-10-10 17:14:00,80.2,46.0,29.18,SE,146,4.0,5.8,30,0.00,,CLR,0.00,VWS V14.01,2013-10-10 22:14:00,
2013-10-10 17:15:00,80.2,46.0,29.18,SSE,151,4.0,4.0,30,0.00,,CLR,0.00,VWS V14.01,2013-10-10 22:15:00,
2013-10-10 17:16:00,80.2,46.0,29.18,ESE,110,2.7,3.6,30,0.00,,CLR,0.00,VWS V14.01,2013-10-10 22:16:00,
2013-10-10 17:19:00,80.1,45.9,29.18,SE,139,5.8,5.8,30,0.00,,CLR,0.00,VWS V14.01,2013-10-10 22:19:00,
2013-10-10 17:20:00,80.1,45.9,29.18,SE,140,6.3,6.3,30,0.00,,CLR,0.00,VWS V14.01,2013-10-10 22:20:00,
2013-10-10 17:21:00,80.1,45.9,29.18,SSE,153,4.0,6.3,30,0.00,,CLR,0.00,VWS V14.01,2013-10-10 22:21:00,
2013-10-10 17:22:00,79.9,45.7,29.18,SE,139,5.8,5.8,30,0.00,,CLR,0.00,VWS V14.01,2013-10-10 22:22:00,
2013-10-10 17:26:00,79.7,45.6,29.18,South,175,6.3,6.3,30,0.00,,CLR,0.00,VWS V14.01,2013-10-10 22:26:00,
2013-10-10 17:28:00,79.5,45.4,29.18,SE,130,3.1,5.4,30,0.00,,CLR,0.00,VWS V14.01,2013-10-10 22:28:00,
2013-10-10 17:30:00,79.3,45.2,29.18,SSE,159,4.5,4.9,30,0.00,,CLR,0.00,VWS V14.01,2013-10-10 22:30:00,
2013-10-10 17:31:00,79.3,45.2,29.18,SSE,151,6.7,7.6,30,0.00,,CLR,0.00,VWS V14.01,2013-10-10 22:31:00,
2013-10-10 17:32:00,79.2,45.1,29.18,SSE,159,2.7,5.4,30,0.00,,CLR,0.00,VWS V14.01,2013-10-10 22:32:00,
2013-10-10 17:33:00,79.2,45.1,29.18,SSE,147,3.6,4.0,30,0.00,,CLR,0.00,VWS V14.01,2013-10-10 22:33:00,
2013-10-10 17:36:00,79.0,44.9,29.18,SSE,149,3.1,3.1,30,0.00,,CLR,0.00,VWS V14.01,2013-10-10 22:36:00,
2013-10-10 17:38:00,79.0,44.9,29.18,South,170,3.6,5.4,30,0.00,,CLR,0.00,VWS V14.01,2013-10-10 22:38:00,
2013-10-10 17:39:00,78.8,44.8,29.18,SE,144,3.6,5.4,30,0.00,,CLR,0.00,VWS V14.01,2013-10-10 22:39:00,
2013-10-10 17:41:00,78.8,44.8,29.18,SSE,151,0.0,0.0,30,0.00,,CLR,0.00,VWS V14.01,2013-10-10 22:41:00,
2013-10-10 17:42:00,78.6,44.6,29.18,South,184,8.1,8.1,30,0.00,,CLR,0.00,VWS V14.01,2013-10-10 22:42:00,
2013-10-10 17:43:00,78.4,44.5,29.18,SSE,150,3.1,5.4,30,0.00,,CLR,0.00,VWS V14.01,2013-10-10 22:43:00,
2013-10-10 17:44:00,78.4,44.5,29.18,SSE,154,4.0,5.8,30,0.00,,CLR,0.00,VWS V14.01,2013-10-10 22:44:00,
2013-10-10 17:46:00,78.3,44.3,29.18,SSE,158,0.0,4.9,30,0.00,,CLR,0.00,VWS V14.01,2013-10-10 22:46:00,
2013-10-10 17:47:00,78.1,44.2,29.18,ESE,120,5.8,5.8,30,0.00,,CLR,0.00,VWS V14.01,2013-10-10 22:47:00,
2013-10-10 17:48:00,78.1,44.2,29.18,SE,138,3.6,3.6,30,0.00,,CLR,0.00,VWS V14.01,2013-10-10 22:48:00,
2013-10-10 17:49:00,78.1,44.2,29.18,SSE,147,0.0,3.6,30,0.00,,CLR,0.00,VWS V14.01,2013-10-10 22:49:00,
2013-10-10 17:50:00,77.9,44.0,29.18,SSE,151,0.0,2.2,30,0.00,,CLR,0.00,VWS V14.01,2013-10-10 22:50:00,
2013-10-10 17:51:00,77.9,44.0,29.18,SSE,154,3.6,3.6,30,0.00,,CLR,0.00,VWS V14.01,2013-10-10 22:51:00,
2013-10-10 17:52:00,77.9,44.0,29.18,SSE,147,3.1,4.0,30,0.00,,CLR,0.00,VWS V14.01,2013-10-10 22:52:00,
2013-10-10 17:55:00,77.7,43.8,29.18,SE,140,6.3,6.3,30,0.00,,CLR,0.00,VWS V14.01,2013-10-10 22:55:00,
2013-10-10 17:56:00,77.5,43.7,29.18,SE,137,3.1,6.3,30,0.00,,CLR,0.00,VWS V14.01,2013-10-10 22:56:00,
2013-10-10 17:57:00,77.5,43.7,29.18,SSE,166,7.2,7.2,30,0.00,,CLR,0.00,VWS V14.01,2013-10-10 22:57:00,
2013-10-10 17:58:00,77.4,43.5,29.18,SSE,154,2.7,7.2,30,0.00,,CLR,0.00,VWS V14.01,2013-10-10 22:58:00,
2013-10-10 17:59:00,77.2,43.4,29.18,SE,143,0.0,3.1,30,0.00,,CLR,0.00,VWS V14.01,2013-10-10 22:59:00,
2013-10-10 18:00:00,77.0,43.2,29.18,SE,145,0.0,2.7,30,0.00,,CLR,0.00,VWS V14.01,2013-10-10 23:00:00,
2013-10-10 18:01:00,77.0,43.2,29.18,ESE,122,3.1,3.1,30,0.00,,CLR,0.00,VWS V14.01,2013-10-10 23:01:00,
2013-10-10 18:02:00,76.8,43.1,29.18,ESE,115,3.1,3.6,30,0.00,,CLR,0.00,VWS V14.01,2013-10-10 23:02:00,
2013-10-10 18:03:00,76.8,43.1,29.18,ESE,102,3.1,3.6,30,0.00,,CLR,0.00,VWS V14.01,2013-10-10 23:03:00,
2013-10-10 18:04:00,76.8,43.1,29.18,ESE,119,0.0,2.2,30,0.00,,CLR,0.00,VWS V14.01,2013-10-10 23:04:00,
2013-10-10 18:06:00,76.5,42.8,29.18,SE,142,0.0,3.6,30,0.00,,CLR,0.00,VWS V14.01,2013-10-10 23:06:00,
2013-10-10 18:07:00,76.3,42.6,29.18,SE,142,0.0,0.0,30,0.00,,CLR,0.00,VWS V14.01,2013-10-10 23:07:00,
2013-10-10 18:08:00,76.3,42.6,29.18,SE,142,0.0,2.2,30,0.00,,CLR,0.00,VWS V14.01,2013-10-10 23:08:00,
2013-10-10 18:09:00,76.1,42.5,29.18,SE,140,2.7,3.6,30,0.00,,CLR,0.00,VWS V14.01,2013-10-10 23:09:00,
2013-10-10 18:12:00,75.7,42.1,29.18,ESE,120,0.0,4.5,30,0.00,,CLR,0.00,VWS V14.01,2013-10-10 23:12:00,
2013-10-10 18:13:00,75.7,42.1,29.18,ESE,120,0.0,0.0,30,0.00,,CLR,0.00,VWS V14.01,2013-10-10 23:13:00,
2013-10-10 18:14:00,75.4,41.8,29.18,SE,124,0.0,3.1,30,0.00,,CLR,0.00,VWS V14.01,2013-10-10 23:14:00,
2013-10-10 18:17:00,75.0,43.2,29.18,SE,126,0.0,0.0,32,0.00,,CLR,0.00,VWS V14.01,2013-10-10 23:17:00,
2013-10-10 18:18:00,74.7,42.9,29.18,SSE,148,0.0,0.0,32,0.00,,CLR,0.00,VWS V14.01,2013-10-10 23:18:00,
2013-10-10 18:19:00,74.7,42.9,29.18,SSE,148,0.0,0.0,32,0.00,,CLR,0.00,VWS V14.01,2013-10-10 23:19:00,
2013-10-10 18:21:00,74.1,42.4,29.18,SSE,148,0.0,0.0,32,0.00,,CLR,0.00,VWS V14.01,2013-10-10 23:21:00,
2013-10-10 18:22:00,74.1,42.4,29.18,SSE,148,0.0,0.0,32,0.00,,CLR,0.00,VWS V14.01,2013-10-10 23:22:00,
2013-10-10 18:23:00,73.8,42.1,29.18,ESE,123,3.6,3.6,32,0.00,,CLR,0.00,VWS V14.01,2013-10-10 23:23:00,
2013-10-10 18:24:00,73.8,42.1,29.18,ESE,123,0.0,4.0,32,0.00,,CLR,0.00,VWS V14.01,2013-10-10 23:24:00,
2013-10-10 18:25:00,73.4,41.8,29.18,ESE,121,2.7,2.7,32,0.00,,CLR,0.00,VWS V14.01,2013-10-10 23:25:00,
2013-10-10 18:28:00,73.0,41.5,29.18,SSE,150,2.7,2.7,32,0.00,,CLR,0.00,VWS V14.01,2013-10-10 23:28:00,
2013-10-10 18:29:00,72.7,41.2,29.18,SSE,150,0.0,2.7,32,0.00,,CLR,0.00,VWS V14.01,2013-10-10 23:29:00,
2013-10-10 18:30:00,72.3,40.8,29.18,SSE,150,0.0,2.2,32,0.00,,CLR,0.00,VWS V14.01,2013-10-10 23:30:00,
2013-10-10 18:32:00,71.8,40.4,29.18,SSE,150,0.0,0.0,32,0.00,,CLR,0.00,VWS V14.01,2013-10-10 23:32:00,
2013-10-10 18:33:00,71.8,40.4,29.18,SSE,150,0.0,0.0,32,0.00,,CLR,0.00,VWS V14.01,2013-10-10 23:33:00,
2013-10-10 18:34:00,71.6,40.2,29.18,SSE,150,0.0,0.0,32,0.00,,CLR,0.00,VWS V14.01,2013-10-10 23:34:00,
2013-10-10 18:35:00,71.2,41.5,29.18,SSE,150,0.0,0.0,34,0.00,,CLR,0.00,VWS V14.01,2013-10-10 23:35:00,
2013-10-10 18:36:00,71.1,41.3,29.18,SSE,151,0.0,0.0,34,0.00,,CLR,0.00,VWS V14.01,2013-10-10 23:36:00,
2013-10-10 18:38:00,70.7,41.0,29.18,SSE,151,0.0,0.0,34,0.00,,CLR,0.00,VWS V14.01,2013-10-10 23:38:00,
2013-10-10 18:39:00,70.5,40.8,29.18,SE,133,0.0,2.7,34,0.00,,CLR,0.00,VWS V14.01,2013-10-10 23:39:00,
2013-10-10 18:40:00,70.5,40.8,29.18,SE,139,0.0,2.7,34,0.00,,CLR,0.00,VWS V14.01,2013-10-10 23:40:00,
2013-10-10 18:41:00,70.3,40.7,29.18,SE,139,0.0,0.0,34,0.00,,CLR,0.00,VWS V14.01,2013-10-10 23:41:00,
2013-10-10 18:43:00,70.2,40.5,29.18,SE,138,0.0,0.0,34,0.00,,CLR,0.00,VWS V14.01,2013-10-10 23:43:00,
2013-10-10 18:45:00,70.0,40.3,29.18,SE,131,0.0,0.0,34,0.00,,CLR,0.00,VWS V14.01,2013-10-10 23:45:00,
2013-10-10 18:46:00,69.8,40.2,29.18,SSE,168,2.2,2.7,34,0.00,,CLR,0.00,VWS V14.01,2013-10-10 23:46:00,
2013-10-10 18:47:00,69.8,40.2,29.18,SSE,168,0.0,2.2,34,0.00,,CLR,0.00,VWS V14.01,2013-10-10 23:47:00,
2013-10-10 18:48:00,69.6,40.0,29.18,SSE,168,0.0,0.0,34,0.00,,CLR,0.00,VWS V14.01,2013-10-10 23:48:00,
2013-10-10 18:50:00,69.4,36.7,29.18,SSE,168,0.0,0.0,30,0.00,,CLR,0.00,VWS V14.01,2013-10-10 23:50:00,
2013-10-10 18:51:00,69.3,36.5,29.18,SSE,168,0.0,0.0,30,0.00,,CLR,0.00,VWS V14.01,2013-10-10 23:51:00,
2013-10-10 18:52:00,69.3,39.7,29.18,SSE,168,0.0,0.0,34,0.00,,CLR,0.00,VWS V14.01,2013-10-10 23:52:00,
2013-10-10 18:53:00,69.1,39.6,29.18,SSE,167,2.2,2.2,34,0.00,,CLR,0.00,VWS V14.01,2013-10-10 23:53:00,
2013-10-10 18:55:00,69.1,39.6,29.18,SSE,168,0.0,2.2,34,0.00,,CLR,0.00,VWS V14.01,2013-10-10 23:55:00,
2013-10-10 18:56:00,68.9,36.2,29.18,SSE,168,0.0,0.0,30,0.00,,CLR,0.00,VWS V14.01,2013-10-10 23:56:00,
2013-10-10 18:58:00,68.7,36.1,29.18,SSE,168,0.0,0.0,30,0.00,,CLR,0.00,VWS V14.01,2013-10-10 23:58:00,
2013-10-10 18:59:00,68.7,36.1,29.18,SSE,167,0.0,0.0,30,0.00,,CLR,0.00,VWS V14.01,2013-10-10 23:59:00,
2013-10-10 19:00:00,68.5,35.9,29.18,SSE,168,0.0,0.0,30,0.00,,CLR,0.00,VWS V14.01,2013-10-11 00:00:00,
2013-10-10 19:01:00,68.4,35.8,29.18,SSE,168,0.0,0.0,30,0.00,,CLR,0.00,VWS V14.01,2013-10-11 00:01:00,
2013-10-10 19:03:00,67.8,35.3,29.18,SSE,168,0.0,0.0,30,0.00,,CLR,0.00,VWS V14.01,2013-10-11 00:03:00,
2013-10-10 19:04:00,67.8,35.3,29.18,SSE,168,0.0,0.0,30,0.00,,CLR,0.00,VWS V14.01,2013-10-11 00:04:00,
2013-10-10 19:05:00,67.6,35.1,29.18,SSE,168,0.0,0.0,30,0.00,,CLR,0.00,VWS V14.01,2013-10-11 00:05:00,
2013-10-10 19:07:00,67.1,34.7,29.18,SSE,168,0.0,0.0,30,0.00,,CLR,0.00,VWS V14.01,2013-10-11 00:07:00,
2013-10-10 19:08:00,66.9,34.5,29.18,SSE,167,0.0,0.0,30,0.00,,CLR,0.00,VWS V14.01,2013-10-11 00:08:00,
2013-10-10 19:09:00,66.6,34.2,29.18,SSE,167,0.0,0.0,30,0.00,,CLR,0.00,VWS V14.01,2013-10-11 00:09:00,
2013-10-10 19:11:00,66.4,34.0,29.18,SSE,167,0.0,0.0,30,0.00,,CLR,0.00,VWS V14.01,2013-10-11 00:11:00,
2013-10-10 19:12:00,66.2,33.9,29.18,SSE,168,0.0,0.0,30,0.00,,CLR,0.00,VWS V14.01,2013-10-11 00:12:00,
2013-10-10 19:13:00,66.0,33.7,29.18,SSE,168,0.0,0.0,30,0.00,,CLR,0.00,VWS V14.01,2013-10-11 00:13:00,
2013-10-10 19:14:00,66.0,33.7,29.18,SSE,168,0.0,0.0,30,0.00,,CLR,0.00,VWS V14.01,2013-10-11 00:14:00,
2013-10-10 19:15:00,66.0,33.7,29.18,SSE,168,0.0,0.0,30,0.00,,CLR,0.00,VWS V14.01,2013-10-11 00:15:00,
2013-10-10 19:17:00,65.8,38.2,29.18,SSE,167,0.0,0.0,36,0.00,,CLR,0.00,VWS V14.01,2013-10-11 00:17:00,
2013-10-10 19:18:00,66.0,38.3,29.18,SSE,168,0.0,0.0,36,0.00,,CLR,0.00,VWS V14.01,2013-10-11 00:18:00,
2013-10-10 19:20:00,66.0,38.3,29.18,SSE,168,0.0,0.0,36,0.00,,CLR,0.00,VWS V14.01,2013-10-11 00:20:00,
2013-10-10 19:21:00,66.2,37.0,29.18,SSE,167,0.0,0.0,34,0.00,,CLR,0.00,VWS V14.01,2013-10-11 00:21:00,
2013-10-10 19:23:00,66.4,37.2,29.18,SSE,168,0.0,0.0,34,0.00,,CLR,0.00,VWS V14.01,2013-10-11 00:23:00,
2013-10-10 19:24:00,66.4,37.2,29.18,SSE,168,0.0,0.0,34,0.00,,CLR,0.00,VWS V14.01,2013-10-11 00:24:00,
2013-10-10 19:26:00,66.4,37.2,29.18,SSE,168,0.0,0.0,34,0.00,,CLR,0.00,VWS V14.01,2013-10-11 00:26:00,
2013-10-10 19:27:00,66.4,37.2,29.18,SSE,168,0.0,0.0,34,0.00,,CLR,0.00,VWS V14.01,2013-10-11 00:27:00,
2013-10-10 19:28:00,66.4,37.2,29.18,SSE,168,0.0,0.0,34,0.00,,CLR,0.00,VWS V14.01,2013-10-11 00:28:00,
2013-10-10 19:29:00,66.2,37.0,29.18,SSE,167,0.0,0.0,34,0.00,,CLR,0.00,VWS V14.01,2013-10-11 00:29:00,
2013-10-10 19:32:00,66.2,37.0,29.18,SSE,167,0.0,0.0,34,0.00,,CLR,0.00,VWS V14.01,2013-10-11 00:32:00,
2013-10-10 19:34:00,66.0,38.3,29.18,SSE,167,0.0,0.0,36,0.00,,CLR,0.00,VWS V14.01,2013-10-11 00:34:00,
2013-10-10 19:35:00,66.0,38.3,29.18,SSE,167,0.0,0.0,36,0.00,,CLR,0.00,VWS V14.01,2013-10-11 00:35:00,
2013-10-10 19:37:00,66.0,38.3,29.18,SSE,168,0.0,0.0,36,0.00,,CLR,0.00,VWS V14.01,2013-10-11 00:37:00,
2013-10-10 19:39:00,65.8,38.2,29.18,SSE,167,0.0,0.0,36,0.00,,CLR,0.00,VWS V14.01,2013-10-11 00:39:00,
2013-10-10 19:40:00,65.8,38.2,29.18,SSE,168,0.0,0.0,36,0.00,,CLR,0.00,VWS V14.01,2013-10-11 00:40:00,
2013-10-10 19:41:00,65.8,38.2,29.18,SSE,168,0.0,0.0,36,0.00,,CLR,0.00,VWS V14.01,2013-10-11 00:41:00,
2013-10-10 19:42:00,65.8,38.2,29.18,SSE,167,0.0,0.0,36,0.00,,CLR,0.00,VWS V14.01,2013-10-11 00:42:00,
2013-10-10 19:43:00,65.8,38.2,29.18,SSE,168,0.0,0.0,36,0.00,,CLR,0.00,VWS V14.01,2013-10-11 00:43:00,
2013-10-10 19:45:00,65.7,38.0,29.18,SSE,167,0.0,0.0,36,0.00,,CLR,0.00,VWS V14.01,2013-10-11 00:45:00,
2013-10-10 19:46:00,65.7,38.0,29.18,SSE,167,0.0,0.0,36,0.00,,CLR,0.00,VWS V14.01,2013-10-11 00:46:00,
2013-10-10 19:47:00,65.7,38.0,29.18,SSE,168,0.0,0.0,36,0.00,,CLR,0.00,VWS V14.01,2013-10-11 00:47:00,
2013-10-10 19:51:00,65.7,38.0,29.18,SSE,168,0.0,0.0,36,0.00,,CLR,0.00,VWS V14.01,2013-10-11 00:51:00,
2013-10-10 19:52:00,65.7,38.0,29.18,SSE,168,0.0,0.0,36,0.00,,CLR,0.00,VWS V14.01,2013-10-11 00:52:00,
2013-10-10 19:53:00,65.7,38.0,29.18,SSE,168,0.0,0.0,36,0.00,,CLR,0.00,VWS V14.01,2013-10-11 00:53:00,
2013-10-10 19:54:00,65.7,38.0,29.18,SSE,168,0.0,0.0,36,0.00,,CLR,0.00,VWS V14.01,2013-10-11 00:54:00,
2013-10-10 19:57:00,65.5,37.8,29.18,SSE,168,0.0,0.0,36,0.00,,CLR,0.00,VWS V14.01,2013-10-11 00:57:00,
2013-10-10 19:58:00,65.3,37.7,29.18,SSE,168,0.0,0.0,36,0.00,,CLR,0.00,VWS V14.01,2013-10-11 00:58:00,
2013-10-10 19:59:00,65.1,37.5,29.18,SSE,168,0.0,0.0,36,0.00,,CLR,0.00,VWS V14.01,2013-10-11 00:59:00,
2013-10-10 20:00:00,65.1,37.5,29.18,SSE,168,0.0,0.0,36,0.00,,CLR,0.00,VWS V14.01,2013-10-11 01:00:00,
2013-10-10 20:02:00,64.8,37.2,29.18,SSE,168,0.0,0.0,36,0.00,,CLR,0.00,VWS V14.01,2013-10-11 01:02:00,
2013-10-10 20:04:00,64.8,37.2,29.18,SSE,168,0.0,0.0,36,0.00,,CLR,0.00,VWS V14.01,2013-10-11 01:04:00,
2013-10-10 20:05:00,64.8,37.2,29.18,SSE,168,0.0,0.0,36,0.00,,CLR,0.00,VWS V14.01,2013-10-11 01:05:00,
2013-10-10 20:06:00,64.6,37.0,29.18,SSE,166,0.0,2.7,36,0.00,,CLR,0.00,VWS V14.01,2013-10-11 01:06:00,
2013-10-10 20:08:00,64.6,37.0,29.18,SE,138,4.0,4.0,36,0.00,,CLR,0.00,VWS V14.01,2013-10-11 01:08:00,
2013-10-10 20:09:00,64.6,37.0,29.18,SE,143,2.2,2.7,36,0.00,,CLR,0.00,VWS V14.01,2013-10-11 01:09:00,
2013-10-10 20:10:00,64.6,37.0,29.18,SE,143,2.7,2.7,36,0.00,,CLR,0.00,VWS V14.01,2013-10-11 01:10:00,
2013-10-10 20:12:00,64.8,37.2,29.18,SE,143,2.2,3.1,36,0.00,,CLR,0.00,VWS V14.01,2013-10-11 01:12:00,
2013-10-10 20:15:00,64.8,37.2,29.18,ESE,112,3.1,3.1,36,0.00,,CLR,0.00,VWS V14.01,2013-10-11 01:15:00,
2013-10-10 20:16:00,64.8,37.2,29.18,ESE,112,2.2,2.2,36,0.00,,CLR,0.00,VWS V14.01,2013-10-11 01:16:00,
2013-10-10 20:18:00,64.8,37.2,29.18,SE,126,2.7,4.0,36,0.00,,CLR,0.00,VWS V14.01,2013-10-11 01:18:00,
2013-10-10 20:20:00,64.9,37.4,29.18,SE,136,3.6,3.6,36,0.00,,CLR,0.00,VWS V14.01,2013-10-11 01:20:00,
2013-10-10 20:21:00,64.9,37.4,29.18,SE,136,2.7,3.6,36,0.00,,CLR,0.00,VWS V14.01,2013-10-11 01:21:00,
2013-10-10 20:22:00,64.9,37.4,29.18,SE,135,3.1,3.1,36,0.00,,CLR,0.00,VWS V14.01,2013-10-11 01:22:00,
2013-10-10 20:23:00,64.9,37.4,29.18,SE,135,2.2,3.1,36,0.00,,CLR,0.00,VWS V14.01,2013-10-11 01:23:00,
2013-10-10 20:26:00,64.9,37.4,29.18,SE,138,2.7,3.6,36,0.00,,CLR,0.00,VWS V14.01,2013-10-11 01:26:00,
2013-10-10 20:27:00,64.9,37.4,29.18,SSE,166,4.0,4.0,36,0.00,,CLR,0.00,VWS V14.01,2013-10-11 01:27:00,
2013-10-10 20:28:00,64.9,37.4,29.18,SSE,163,0.0,2.2,36,0.00,,CLR,0.00,VWS V14.01,2013-10-11 01:28:00,
2013-10-10 20:29:00,64.9,37.4,29.18,SSE,159,3.1,3.1,36,0.00,,CLR,0.00,VWS V14.01,2013-10-11 01:29:00,
2013-10-10 20:30:00,64.9,37.4,29.18,SE,136,3.1,3.6,36,0.00,,CLR,0.00,VWS V14.01,2013-10-11 01:30:00,
2013-10-10 20:32:00,64.9,37.4,29.18,SE,135,3.1,3.6,36,0.00,,CLR,0.00,VWS V14.01,2013-10-11 01:32:00,
2013-10-10 20:33:00,64.9,37.4,29.18,SE,137,3.6,3.6,36,0.00,,CLR,0.00,VWS V14.01,2013-10-11 01:33:00,
2013-10-10 20:34:00,64.9,37.4,29.18,SE,136,0.0,3.1,36,0.00,,CLR,0.00,VWS V14.01,2013-10-11 01:34:00,
2013-10-10 20:35:00,64.9,37.4,29.18,SE,129,0.0,2.2,36,0.00,,CLR,0.00,VWS V14.01,2013-10-11 01:35:00,
2013-10-10 20:38:00,64.9,37.4,29.18,SE,139,3.1,3.1,36,0.00,,CLR,0.00,VWS V14.01,2013-10-11 01:38:00,
2013-10-10 20:39:00,64.9,37.4,29.18,ESE,121,2.7,3.6,36,0.00,,CLR,0.00,VWS V14.01,2013-10-11 01:39:00,
2013-10-10 20:40:00,64.9,37.4,29.18,ESE,122,2.7,3.6,36,0.00,,CLR,0.00,VWS V14.01,2013-10-11 01:40:00,
2013-10-10 20:42:00,64.9,37.4,29.18,SE,126,2.7,4.0,36,0.00,,CLR,0.00,VWS V14.01,2013-10-11 01:42:00,
2013-10-10 20:43:00,64.9,37.4,29.18,ESE,116,4.0,4.0,36,0.00,,CLR,0.00,VWS V14.01,2013-10-11 01:43:00,
2013-10-10 20:44:00,64.9,37.4,29.18,ESE,123,3.1,3.1,36,0.00,,CLR,0.00,VWS V14.01,2013-10-11 01:44:00,
2013-10-10 20:45:00,64.9,37.4,29.18,ESE,105,3.6,3.6,36,0.00,,CLR,0.00,VWS V14.01,2013-10-11 01:45:00,
2013-10-10 20:46:00,64.9,37.4,29.18,SSE,148,2.7,3.6,36,0.00,,CLR,0.00,VWS V14.01,2013-10-11 01:46:00,
2013-10-10 20:47:00,64.9,37.4,29.18,ESE,115,2.7,2.7,36,0.00,,CLR,0.00,VWS V14.01,2013-10-11 01:47:00,
2013-10-10 20:49:00,64.9,37.4,29.18,SE,126,3.1,3.1,36,0.00,,CLR,0.00,VWS V14.01,2013-10-11 01:49:00,
2013-10-10 20:51:00,64.9,37.4,29.18,ESE,123,2.7,2.7,36,0.00,,CLR,0.00,VWS V14.01,2013-10-11 01:51:00,
2013-10-10 20:53:00,64.9,37.4,29.18,SE,140,3.6,3.6,36,0.00,,CLR,0.00,VWS V14.01,2013-10-11 01:53:00,
2013-10-10 20:54:00,64.8,37.2,29.18,ESE,112,2.7,3.1,36,0.00,,CLR,0.00,VWS V14.01,2013-10-11 01:54:00,
2013-10-10 20:55:00,64.8,37.2,29.18,SE,143,3.1,4.0,36,0.00,,CLR,0.00,VWS V14.01,2013-10-11 01:55:00,
2013-10-10 20:56:00,64.8,37.2,29.18,SE,140,3.1,3.6,36,0.00,,CLR,0.00,VWS V14.01,2013-10-11 01:56:00,
2013-10-10 20:57:00,64.8,37.2,29.18,SE,130,3.1,4.0,36,0.00,,CLR,0.00,VWS V14.01,2013-10-11 01:57:00,
2013-10-10 20:58:00,64.8,37.2,29.18,ESE,115,3.1,3.6,36,0.00,,CLR,0.00,VWS V14.01,2013-10-11 01:58:00,
2013-10-10 20:59:00,64.8,37.2,29.18,SSE,153,3.6,4.9,36,0.00,,CLR,0.00,VWS V14.01,2013-10-11 01:59:00,
2013-10-10 21:00:00,64.8,37.2,29.18,SE,124,4.0,4.0,36,0.00,,CLR,0.00,VWS V14.01,2013-10-11 02:00:00,
2013-10-10 21:01:00,64.8,37.2,29.18,East,99,3.1,3.1,36,0.00,,CLR,0.00,VWS V14.01,2013-10-11 02:01:00,
2013-10-10 21:02:00,64.8,37.2,29.18,ESE,104,2.2,3.1,36,0.00,,CLR,0.00,VWS V14.01,2013-10-11 02:02:00,
2013-10-10 21:04:00,64.8,37.2,29.18,ESE,107,2.7,2.7,36,0.00,,CLR,0.00,VWS V14.01,2013-10-11 02:04:00,
2013-10-10 21:05:00,64.8,37.2,29.18,ESE,105,0.0,4.0,36,0.00,,CLR,0.00,VWS V14.01,2013-10-11 02:05:00,
2013-10-10 21:06:00,64.8,37.2,29.18,ESE,110,3.6,4.0,36,0.00,,CLR,0.00,VWS V14.01,2013-10-11 02:06:00,
2013-10-10 21:07:00,64.8,37.2,29.18,ESE,111,2.7,3.6,36,0.00,,CLR,0.00,VWS V14.01,2013-10-11 02:07:00,
2013-10-10 21:11:00,64.8,37.2,29.18,SE,131,2.2,3.6,36,0.00,,CLR,0.00,VWS V14.01,2013-10-11 02:11:00,
2013-10-10 21:12:00,64.8,37.2,29.18,SE,124,2.7,2.7,36,0.00,,CLR,0.00,VWS V14.01,2013-10-11 02:12:00,
2013-10-10 21:13:00,64.8,37.2,29.18,ESE,107,3.6,3.6,36,0.00,,CLR,0.00,VWS V14.01,2013-10-11 02:13:00,
2013-10-10 21:16:00,64.8,37.2,29.18,SSE,157,2.7,3.6,36,0.00,,CLR,0.00,VWS V14.01,2013-10-11 02:16:00,
2013-10-10 21:18:00,64.8,37.2,29.18,SE,133,3.1,3.1,36,0.00,,CLR,0.00,VWS V14.01,2013-10-11 02:18:00,
2013-10-10 21:20:00,64.8,37.2,29.18,ESE,102,3.6,3.6,36,0.00,,CLR,0.00,VWS V14.01,2013-10-11 02:20:00,
2013-10-10 21:22:00,64.8,37.2,29.18,ESE,119,2.7,3.6,36,0.00,,CLR,0.00,VWS V14.01,2013-10-11 02:22:00,
2013-10-10 21:23:00,64.8,37.2,29.18,ESE,123,3.6,3.6,36,0.00,,CLR,0.00,VWS V14.01,2013-10-11 02:23:00,
2013-10-10 21:25:00,64.6,37.0,29.18,ESE,111,3.1,3.6,36,0.00,,CLR,0.00,VWS V14.01,2013-10-11 02:25:00,
2013-10-10 21:27:00,64.6,37.0,29.18,SE,142,3.1,4.0,36,0.00,,CLR,0.00,VWS V14.01,2013-10-11 02:27:00,
2013-10-10 21:28:00,64.6,37.0,29.18,SE,130,4.0,4.0,36,0.00,,CLR,0.00,VWS V14.01,2013-10-11 02:28:00,
2013-10-10 21:29:00,64.6,37.0,29.18,SE,130,2.7,4.0,36,0.00,,CLR,0.00,VWS V14.01,2013-10-11 02:29:00,
2013-10-10 21:30:00,64.6,37.0,29.18,SE,130,0.0,2.7,36,0.00,,CLR,0.00,VWS V14.01,2013-10-11 02:30:00,
2013-10-10 21:31:00,64.6,37.0,29.18,ESE,113,3.1,4.0,36,0.00,,CLR,0.00,VWS V14.01,2013-10-11 02:31:00,
2013-10-10 21:33:00,64.6,37.0,29.18,SSE,147,3.6,3.6,36,0.00,,CLR,0.00,VWS V14.01,2013-10-11 02:33:00,
2013-10-10 21:34:00,64.6,37.0,29.18,ESE,113,2.7,3.6,36,0.00,,CLR,0.00,VWS V14.01,2013-10-11 02:34:00,
2013-10-10 21:35:00,64.6,37.0,29.18,SE,142,3.1,3.1,36,0.00,,CLR,0.00,VWS V14.01,2013-10-11 02:35:00,
2013-10-10 21:36:00,64.6,37.0,29.18,SE,138,2.7,2.7,36,0.00,,CLR,0.00,VWS V14.01,2013-10-11 02:36:00,
2013-10-10 21:38:00,64.6,37.0,29.18,ESE,115,2.7,3.6,36,0.00,,CLR,0.00,VWS V14.01,2013-10-11 02:38:00,
2013-10-10 21:39:00,64.4,36.9,29.18,East,100,4.0,4.0,36,0.00,,CLR,0.00,VWS V14.01,2013-10-11 02:39:00,
2013-10-10 21:40:00,64.4,36.9,29.18,ESE,109,2.7,3.1,36,0.00,,CLR,0.00,VWS V14.01,2013-10-11 02:40:00,
2013-10-10 21:41:00,64.4,36.9,29.18,ESE,121,2.7,3.1,36,0.00,,CLR,0.00,VWS V14.01,2013-10-11 02:41:00,
2013-10-10 21:42:00,64.4,36.9,29.18,ESE,121,2.7,2.7,36,0.00,,CLR,0.00,VWS V14.01,2013-10-11 02:42:00,
2013-10-10 21:44:00,64.4,39.6,29.18,ESE,106,3.1,3.1,40,0.00,,CLR,0.00,VWS V14.01,2013-10-11 02:44:00,
2013-10-10 21:45:00,64.4,39.6,29.18,ESE,114,2.7,4.0,40,0.00,,CLR,0.00,VWS V14.01,2013-10-11 02:45:00,
2013-10-10 21:46:00,64.4,39.6,29.18,SSE,148,3.1,3.1,40,0.00,,CLR,0.00,VWS V14.01,2013-10-11 02:46:00,
2013-10-10 21:47:00,64.4,39.6,29.18,ESE,115,3.6,4.0,40,0.00,,CLR,0.00,VWS V14.01,2013-10-11 02:47:00,
2013-10-10 21:49:00,64.4,39.6,29.18,ESE,122,3.6,3.6,40,0.00,,CLR,0.00,VWS V14.01,2013-10-11 02:49:00,
2013-10-10 21:51:00,64.4,39.6,29.18,SSE,147,4.0,4.0,40,0.00,,CLR,0.00,VWS V14.01,2013-10-11 02:51:00,
2013-10-10 21:52:00,64.4,39.6,29.18,SE,139,3.1,3.6,40,0.00,,CLR,0.00,VWS V14.01,2013-10-11 02:52:00,
2013-10-10 21:53:00,64.4,39.6,29.18,SSE,155,2.7,3.6,40,0.00,,CLR,0.00,VWS V14.01,2013-10-11 02:53:00,
2013-10-10 21:56:00,64.2,40.7,29.18,SSE,160,3.6,3.6,42,0.00,,CLR,0.00,VWS V14.01,2013-10-11 02:56:00,
2013-10-10 21:57:00,64.2,40.7,29.18,SE,125,2.7,3.6,42,0.00,,CLR,0.00,VWS V14.01,2013-10-11 02:57:00,
2013-10-10 21:58:00,64.2,40.7,29.18,SE,132,3.6,4.0,42,0.00,,CLR,0.00,VWS V14.01,2013-10-11 02:58:00,
2013-10-10 22:01:00,64.2,40.7,29.18,SE,133,3.1,3.1,42,0.00,,CLR,0.00,VWS V14.01,2013-10-11 03:01:00,
2013-10-10 22:02:00,64.2,40.7,29.18,SSE,153,4.0,4.0,42,0.00,,CLR,0.00,VWS V14.01,2013-10-11 03:02:00,
2013-10-10 22:03:00,64.2,40.7,29.18,SE,138,2.7,4.9,42,0.00,,CLR,0.00,VWS V14.01,2013-10-11 03:03:00,
2013-10-10 22:04:00,64.2,40.7,29.18,SE,126,2.7,3.6,42,0.00,,CLR,0.00,VWS V14.01,2013-10-11 03:04:00,
2013-10-10 22:07:00,64.2,40.7,29.18,SE,142,0.0,3.1,42,0.00,,CLR,0.00,VWS V14.01,2013-10-11 03:07:00,
2013-10-10 22:08:00,64.2,40.7,29.18,ESE,115,3.1,3.1,42,0.00,,CLR,0.00,VWS V14.01,2013-10-11 03:08:00,
2013-10-10 22:09:00,64.2,40.7,29.18,SE,144,3.1,4.0,42,0.00,,CLR,0.00,VWS V14.01,2013-10-11 03:09:00,
2013-10-10 22:10:00,64.2,40.7,29.18,SE,142,0.0,3.6,42,0.00,,CLR,0.00,VWS V14.01,2013-10-11 03:10:00,
2013-10-10 22:12:00,64.4,39.6,29.18,ESE,120,2.7,3.1,40,0.00,,CLR,0.00,VWS V14.01,2013-10-11 03:12:00,
2013-10-10 22:13:00,64.2,40.7,29.18,SE,126,3.1,3.6,42,0.00,,CLR,0.00,VWS V14.01,2013-10-11 03:13:00,
2013-10-10 22:14:00,64.2,40.7,29.18,SSE,155,4.9,4.9,42,0.00,,CLR,0.00,VWS V14.01,2013-10-11 03:14:00,
2013-10-10 22:15:00,64.2,40.7,29.18,SE,125,3.6,3.6,42,0.00,,CLR,0.00,VWS V14.01,2013-10-11 03:15:00,
2013-10-10 22:17:00,64.2,40.7,29.18,SSE,149,0.0,2.7,42,0.00,,CLR,0.00,VWS V14.01,2013-10-11 03:17:00,
2013-10-10 22:18:00,64.2,40.7,29.18,SSE,155,4.0,4.0,42,0.00,,CLR,0.00,VWS V14.01,2013-10-11 03:18:00,
2013-10-10 22:20:00,64.0,40.5,29.18,SE,126,0.0,3.6,42,0.00,,CLR,0.00,VWS V14.01,2013-10-11 03:20:00,
2013-10-10 22:21:00,64.0,40.5,29.18,SE,131,3.6,3.6,42,0.00,,CLR,0.00,VWS V14.01,2013-10-11 03:21:00,
2013-10-10 22:22:00,64.0,40.5,29.18,SSE,155,2.7,3.6,42,0.00,,CLR,0.00,VWS V14.01,2013-10-11 03:22:00,
2013-10-10 22:23:00,64.0,40.5,29.18,SSE,167,3.6,4.0,42,0.00,,CLR,0.00,VWS V14.01,2013-10-11 03:23:00,
2013-10-10 22:24:00,63.9,40.3,29.18,SSE,167,2.2,2.7,42,0.00,,CLR,0.00,VWS V14.01,2013-10-11 03:24:00,
2013-10-10 22:25:00,63.7,40.2,29.18,SSE,153,4.0,4.0,42,0.00,,CLR,0.00,VWS V14.01,2013-10-11 03:25:00,
2013-10-10 22:26:00,63.7,40.2,29.18,SSE,153,0.0,0.0,42,0.00,,CLR,0.00,VWS V14.01,2013-10-11 03:26:00,
2013-10-10 22:27:00,63.7,40.2,29.18,SSE,153,2.7,2.7,42,0.00,,CLR,0.00,VWS V14.01,2013-10-11 03:27:00,
2013-10-10 22:28:00,63.5,42.4,29.18,SE,138,0.0,0.0,46,0.00,,CLR,0.00,VWS V14.01,2013-10-11 03:28:00,
2013-10-10 22:30:00,63.5,42.4,29.18,SE,138,2.2,3.1,46,0.00,,CLR,0.00,VWS V14.01,2013-10-11 03:30:00,
2013-10-10 22:32:00,63.3,42.2,29.18,SE,146,0.0,0.0,46,0.00,,CLR,0.00,VWS V14.01,2013-10-11 03:32:00,
2013-10-10 22:34:00,63.3,43.3,29.18,SSE,152,0.0,2.2,48,0.00,,CLR,0.00,VWS V14.01,2013-10-11 03:34:00,
2013-10-10 22:35:00,63.3,43.3,29.18,SE,142,3.1,4.0,48,0.00,,CLR,0.00,VWS V14.01,2013-10-11 03:35:00,
2013-10-10 22:36:00,63.3,43.3,29.18,SE,141,2.2,4.0,48,0.00,,CLR,0.00,VWS V14.01,2013-10-11 03:36:00,
2013-10-10 22:37:00,63.3,43.3,29.18,South,178,3.1,3.1,48,0.00,,CLR,0.00,VWS V14.01,2013-10-11 03:37:00,
2013-10-10 22:38:00,63.3,43.3,29.18,SSE,162,0.0,3.1,48,0.00,,CLR,0.00,VWS V14.01,2013-10-11 03:38:00,
2013-10-10 22:40:00,63.1,43.2,29.18,SE,144,2.7,3.1,48,0.00,,CLR,0.00,VWS V14.01,2013-10-11 03:40:00,
2013-10-10 22:41:00,63.1,43.2,29.18,SE,143,3.1,3.1,48,0.00,,CLR,0.00,VWS V14.01,2013-10-11 03:41:00,
2013-10-10 22:42:00,63.1,43.2,29.18,SE,143,0.0,2.7,48,0.00,,CLR,0.00,VWS V14.01,2013-10-11 03:42:00,
2013-10-10 22:44:00,63.1,43.2,29.18,SSE,152,2.7,4.0,48,0.00,,CLR,0.00,VWS V14.01,2013-10-11 03:44:00,
2013-10-10 22:45:00,63.0,43.0,29.18,South,184,3.1,4.5,48,0.00,,CLR,0.00,VWS V14.01,2013-10-11 03:45:00,
2013-10-10 22:46:00,63.0,43.0,29.18,SSE,154,0.0,3.6,48,0.00,,CLR,0.00,VWS V14.01,2013-10-11 03:46:00,
2013-10-10 22:47:00,63.0,43.0,29.18,SSE,154,0.0,3.6,48,0.00,,CLR,0.00,VWS V14.01,2013-10-11 03:47:00,
2013-10-10 22:48:00,63.0,43.0,29.18,SSE,154,0.0,0.0,48,0.00,,CLR,0.00,VWS V14.01,2013-10-11 03:48:00,
2013-10-10 22:49:00,62.8,42.8,29.18,SSE,157,2.7,2.7,48,0.00,,CLR,0.00,VWS V14.01,2013-10-11 03:49:00,
2013-10-10 22:50:00,62.8,42.8,29.18,SSE,153,0.0,3.1,48,0.00,,CLR,0.00,VWS V14.01,2013-10-11 03:50:00,
2013-10-10 22:52:00,62.8,42.8,29.18,SSE,168,4.0,4.0,48,0.00,,CLR,0.00,VWS V14.01,2013-10-11 03:52:00,
2013-10-10 22:53:00,62.8,42.8,29.18,SSE,158,3.1,4.0,48,0.00,,CLR,0.00,VWS V14.01,2013-10-11 03:53:00,
2013-10-10 22:56:00,62.6,42.7,29.18,SSE,160,2.2,4.0,48,0.00,,CLR,0.00,VWS V14.01,2013-10-11 03:56:00,
2013-10-10 22:58:00,62.6,42.7,29.18,SSE,159,3.1,3.1,48,0.00,,CLR,0.00,VWS V14.01,2013-10-11 03:58:00,
2013-10-10 23:00:00,62.6,42.7,29.18,SSE,160,4.0,4.0,48,0.00,,CLR,0.00,VWS V14.01,2013-10-11 04:00:00,
2013-10-10 23:01:00,62.6,42.7,29.18,SSE,160,3.1,4.0,48,0.00,,CLR,0.00,VWS V14.01,2013-10-11 04:01:00,
2013-10-10 23:02:00,62.6,43.7,29.18,SSE,152,3.6,4.0,50,0.00,,CLR,0.00,VWS V14.01,2013-10-11 04:02:00,
2013-10-10 23:03:00,62.6,43.7,29.18,SSE,155,2.7,3.6,50,0.00,,CLR,0.00,VWS V14.01,2013-10-11 04:03:00,
2013-10-10 23:06:00,62.6,43.7,29.18,SSE,160,2.7,4.0,50,0.00,,CLR,0.00,VWS V14.01,2013-10-11 04:06:00,
2013-10-10 23:08:00,62.6,43.7,29.18,SSE,163,3.6,4.9,50,0.00,,CLR,0.00,VWS V14.01,2013-10-11 04:08:00,
2013-10-10 23:09:00,62.6,43.7,29.18,SSE,157,2.7,4.9,50,0.00,,CLR,0.00,VWS V14.01,2013-10-11 04:09:00,
2013-10-10 23:12:00,62.6,44.8,29.18,SE,135,4.9,4.9,52,0.00,,CLR,0.00,VWS V14.01,2013-10-11 04:12:00,
2013-10-10 23:13:00,62.6,44.8,29.18,SSE,161,4.0,4.5,52,0.00,,CLR,0.00,VWS V14.01,2013-10-11 04:13:00,
2013-10-10 23:14:00,62.6,44.8,29.18,SSE,158,3.1,4.0,52,0.00,,CLR,0.00,VWS V14.01,2013-10-11 04:14:00,
2013-10-10 23:15:00,62.6,44.8,29.18,SSE,158,4.9,5.4,52,0.00,,CLR,0.00,VWS V14.01,2013-10-11 04:15:00,
2013-10-10 23:18:00,62.6,44.8,29.18,SSE,158,3.6,4.0,52,0.00,,CLR,0.00,VWS V14.01,2013-10-11 04:18:00,
2013-10-10 23:19:00,62.8,44.9,29.18,SE,142,3.1,5.4,52,0.00,,CLR,0.00,VWS V14.01,2013-10-11 04:19:00,
2013-10-10 23:20:00,62.8,44.9,29.18,SSE,150,4.5,5.4,52,0.00,,CLR,0.00,VWS V14.01,2013-10-11 04:20:00,
2013-10-10 23:21:00,62.6,44.8,29.18,South,173,7.6,7.6,52,0.00,,CLR,0.00,VWS V14.01,2013-10-11 04:21:00,
2013-10-10 23:22:00,62.8,44.9,29.18,SSE,161,4.0,6.3,52,0.00,,CLR,0.00,VWS V14.01,2013-10-11 04:22:00,
2013-10-10 23:23:00,62.8,44.9,29.18,SSE,163,4.9,6.3,52,0.00,,CLR,0.00,VWS V14.01,2013-10-11 04:23:00,
2013-10-10 23:24:00,62.8,44.9,29.18,South,170,4.0,4.9,52,0.00,,CLR,0.00,VWS V14.01,2013-10-11 04:24:00,
2013-10-10 23:25:00,62.8,44.9,29.18,SSE,156,3.6,3.6,52,0.00,,CLR,0.00,VWS V14.01,2013-10-11 04:25:00,
2013-10-10 23:28:00,62.8,44.9,29.18,SE,141,2.7,4.0,52,0.00,,CLR,0.00,VWS V14.01,2013-10-11 04:28:00,
2013-10-10 23:29:00,62.8,44.9,29.18,SE,146,2.2,5.4,52,0.00,,CLR,0.00,VWS V14.01,2013-10-11 04:29:00,
2013-10-10 23:30:00,62.8,44.9,29.18,SSE,152,2.7,5.8,52,0.00,,CLR,0.00,VWS V14.01,2013-10-11 04:30:00,
2013-10-10 23:31:00,62.8,44.9,29.18,SSE,168,3.6,5.8,52,0.00,,CLR,0.00,VWS V14.01,2013-10-11 04:31:00,
2013-10-10 23:32:00,62.8,44.9,29.18,SSE,161,5.4,5.4,52,0.00,,CLR,0.00,VWS V14.01,2013-10-11 04:32:00,
2013-10-10 23:33:00,62.8,44.9,29.18,SSE,165,3.6,4.9,52,0.00,,CLR,0.00,VWS V14.01,2013-10-11 04:33:00,
2013-10-10 23:35:00,62.8,44.9,29.18,SSE,160,4.0,5.8,52,0.00,,CLR,0.00,VWS V14.01,2013-10-11 04:35:00,
2013-10-10 23:36:00,62.8,44.9,29.18,SSE,150,3.6,5.8,52,0.00,,CLR,0.00,VWS V14.01,2013-10-11 04:36:00,
2013-10-10 23:38:00,62.8,44.9,29.18,SE,142,4.0,6.3,52,0.00,,CLR,0.00,VWS V14.01,2013-10-11 04:38:00,
2013-10-10 23:39:00,62.8,44.9,29.15,SE,142,4.0,4.9,52,0.00,,CLR,0.00,VWS V14.01,2013-10-11 04:39:00,
2013-10-10 23:40:00,62.8,44.9,29.15,SSE,156,3.6,5.4,52,0.00,,CLR,0.00,VWS V14.01,2013-10-11 04:40:00,
2013-10-10 23:41:00,62.8,44.9,29.15,SE,144,5.4,5.4,52,0.00,,CLR,0.00,VWS V14.01,2013-10-11 04:41:00,
2013-10-10 23:44:00,62.8,45.9,29.15,SSE,164,4.0,6.3,54,0.00,,CLR,0.00,VWS V14.01,2013-10-11 04:44:00,
2013-10-10 23:45:00,62.6,45.7,29.15,SSE,160,6.3,8.1,54,0.00,,CLR,0.00,VWS V14.01,2013-10-11 04:45:00,
2013-10-10 23:46:00,62.6,45.7,29.15,SSE,159,5.8,5.8,54,0.00,,CLR,0.00,VWS V14.01,2013-10-11 04:46:00,
2013-10-10 23:47:00,62.6,45.7,29.15,SE,142,5.4,5.8,54,0.00,,CLR,0.00,VWS V14.01,2013-10-11 04:47:00,
2013-10-10 23:49:00,62.6,45.7,29.15,SSE,153,5.8,5.8,54,0.00,,CLR,0.00,VWS V14.01,2013-10-11 04:49:00,
2013-10-10 23:50:00,62.6,45.7,29.15,SSE,159,4.9,4.9,54,0.00,,CLR,0.00,VWS V14.01,2013-10-11 04:50:00,
2013-10-10 23:51:00,62.6,45.7,29.15,SSE,151,3.6,6.3,54,0.00,,CLR,0.00,VWS V14.01,2013-10-11 04:51:00,
2013-10-10 23:52:00,62.6,45.7,29.15,SSE,165,3.6,5.8,54,0.00,,CLR,0.00,VWS V14.01,2013-10-11 04:52:00,
2013-10-10 23:53:00,62.6,45.7,29.15,SSE,161,5.8,5.8,54,0.00,,CLR,0.00,VWS V14.01,2013-10-11 04:53:00,
2013-10-10 23:54:00,62.6,45.7,29.18,SSE,160,5.4,5.8,54,0.00,,CLR,0.00,VWS V14.01,2013-10-11 04:54:00,
2013-10-10 23:56:00,62.6,45.7,29.18,South,187,8.1,8.1,54,0.00,,CLR,0.00,VWS V14.01,2013-10-11 04:56:00,
2013-10-10 23:57:00,62.6,45.7,29.18,SSE,157,5.4,8.1,54,0.00,,CLR,0.00,VWS V14.01,2013-10-11 04:57:00,
2013-10-10 23:58:00,62.6,45.7,29.18,South,173,4.0,5.4,54,0.00,,CLR,0.00,VWS V14.01,2013-10-11 04:58:00,